OCREC2019 - STANDARD COURSE - SPRINT

Organizator:
Stowarzyszenie Biegów Przeszkodowych OCR Polska
Data:
2019-06-28
Miejsce:
Gdynia
Dystans:
1 km
Zgłoszonych:
1363
Wystartowało:
1274
Nie ukończyło:
43
Ukończyło:
1231
Na trasie:
8
Pełne wyniki :
Wyniki uproszczone:
Wyniki nieoficjalne !!!
Klasyfikacje w punktach pomiarowych: Start | Meta

MscZawodnikNumerKlubMiejscowośćKrajKategoriaMkatK/MCzas
netto
1km
Różn.Tempo
min/km
Tempo
km/h
     
1OSHKIN Egor 1419M 30-341M 100:04:02.55 4:0314.8
2SABA Alessandro 1057M Elite1M 200:04:41.40+00:00:384:4112.8
3OPIAŁ Grzegorz 1615M 30-342M 300:04:50.85+00:00:484:5112.4
4KÖNIG Alexander 2412M Journeyman1M 400:04:51.35+00:00:484:5212.3
5HARBUNOU Ihar 1010M Elite2M 500:04:52.00+00:00:494:5212.3
6BUYLE Thomas 1000M Elite3M 600:04:52.30+00:00:494:5212.3
7HENNEKEN Claudia Maria 1113W Elite1K 100:04:56.60+00:00:544:5612.2
8OŚLIZŁO Tomasz 1004M Elite4M 700:04:58.85+00:00:564:5912
9WÓJCIK Adam 1219M 18-241M 800:05:00.85+00:00:585:0112
10TWEDDELL Tom 1007M Elite5M 900:05:04.45+00:01:015:0411.8
11HRDINA Pavel 1018M Elite6M 1000:05:05.25+00:01:025:0611.8
12COLETTA Alessandro 1448M 30-343M 1100:05:06.60+00:01:045:0711.7
13HAUSMANN Frank 1058M Elite7M 1200:05:06.75+00:01:045:0611.8
14KRAWIECKI Mateusz 1424M 30-344M 1300:05:07.50+00:01:045:0711.7
15EVENSEN Ulrikke 1100W Elite2K 200:05:08.20+00:01:055:0811.7
16MADSEN Ditlev 1166M 18-242M 1400:05:08.20+00:01:055:0811.7
17LIUTKUS Dainius 1397M 30-345M 1500:05:08.35+00:01:055:0911.7
18TITCOMB Daniel 1170M 18-243M 1600:05:08.80+00:01:065:0811.7
19STENBECK Fredrik 1155M 18-244M 1700:05:09.60+00:01:075:1011.6
20REMMER Thomas 1545M 30-346M 1800:05:10.05+00:01:075:1011.6
21BLOEM Martijn 1812M 40-441M 1900:05:13.05+00:01:105:1311.5
22PRUNDÊNCIO Gonçalo 1041M Elite8M 2000:05:16.75+00:01:145:1711.4
23TOCHKA Artsiom 1013M Elite9M 2100:05:16.80+00:01:145:1711.4
24BRZOSKWINIA Wojciech 1239M 25-291M 2200:05:17.00+00:01:145:1711.4
25CRUZ Sebastien 1702M 35-391M 2300:05:17.80+00:01:155:1811.3
26FAGERSTRÖM Po 1940M 40-442M 2400:05:18.35+00:01:155:1811.3
27SZCZECHLA Grzegorz 1006M Elite10M 2500:05:18.70+00:01:165:1811.3
28SITKEVICH Anton 1427M 30-347M 2600:05:19.10+00:01:165:1911.3
29CAZZAVACCA Alessandro 1609M 30-348M 2700:05:19.35+00:01:165:1911.3
30BLONDEEL Jensen 1012M Elite11M 2800:05:20.80+00:01:185:2011.3
31JONSSON Nils 1595M 30-349M 2900:05:22.30+00:01:195:2311.1
32ЗАХАРКИН Сергей 1929M 40-443M 3000:05:24.75+00:01:225:2411.1
33KRIUKOV Nikita 1091M Elite12M 3100:05:25.35+00:01:225:2511.1
34WINTERS Arjan 1619M 35-392M 3200:05:25.95+00:01:235:2611
35OŚLIZŁO Marek 1146M 18-245M 3300:05:26.30+00:01:235:2711
36HEER Jesse De 1001M Elite13M 3400:05:28.15+00:01:255:2811
37KRÓL Piotr 1421M 30-3410M 3500:05:28.15+00:01:255:2811
38SAVANOVICH Vitali 1816M 40-444M 3600:05:28.45+00:01:255:2910.9
39LORIS Pintarelli 1310M 25-292M 3700:05:28.95+00:01:265:2910.9
40GAŁDYN Kamil 1163M 18-246M 3800:05:29.45+00:01:265:3010.9
41BENITEZ Manuel Jesús Luján 1073M Elite14M 3900:05:29.75+00:01:275:2910.9
42СУЗДАЛЕВ Антон 1017M Elite15M 4000:05:29.85+00:01:275:3010.9
43CATELLANI Mirco 1581M 30-3411M 4100:05:31.00+00:01:285:3110.9
44PROKUDIN Nikolay 1804M 40-445M 4200:05:32.25+00:01:295:3310.8
45NOVÁK Lukáš 1033M Elite16M 4300:05:34.05+00:01:315:3510.7
46LAGRAND Stijn 1962M 13-171M 4400:05:34.05+00:01:315:3410.8
47MENDES Axel 1029M Elite17M 4500:05:34.45+00:01:315:3410.8
48BERTA Paolo 1827M 40-446M 4600:05:34.50+00:01:315:3510.7
49BENTO Toni 1845M 40-447M 4700:05:35.30+00:01:325:3510.7
50DEBUSSCHERE Thibault 1011M Elite18M 4800:05:36.05+00:01:335:3610.7
51CUENCA Aitor Garde 1248M 25-293M 4900:05:36.25+00:01:335:3610.7
52WILK Sylwester 1189M 18-247M 5000:05:36.70+00:01:345:3610.7
53NIKONOV Maksim 1640M 35-393M 5100:05:37.25+00:01:345:3710.7
54GERICH Jan Von 1904M 40-448M 5200:05:38.00+00:01:355:3810.7
55BONAITA Alex 1668M 35-394M 5300:05:38.30+00:01:355:3810.7
56SHERETOV Eugene 1030M 30-3412M 5400:05:38.65+00:01:365:3810.7
57MATUSEVICH Alexsey 1234M 25-294M 5500:05:38.90+00:01:365:3810.7
58JANSSON Thomas 1035M Elite19M 5600:05:39.45+00:01:365:4010.6
59KADIJA Rigers 1019M Elite20M 5700:05:40.05+00:01:375:4010.6
60HANSEN Stefan 1650M 35-395M 5800:05:40.95+00:01:385:4110.6
61RIJNEKER Jesper 1149M 18-248M 5900:05:41.10+00:01:385:4110.6
62MÉDARD Olivier 1446M 30-3413M 6000:05:41.60+00:01:395:4210.5
63STRUIJK Alexander 1014M Elite21M 6100:05:43.25+00:01:405:4310.5
64KUPIS Łukasz 1224M 25-295M 6200:05:43.90+00:01:415:4410.5
65VLAM Thijs 1275M 25-296M 6300:05:44.85+00:01:425:4510.4
66SETTELE Stefan 1429M 30-3414M 6400:05:44.90+00:01:425:4510.4
67HANDLER Christian 1043M Elite22M 6500:05:45.15+00:01:425:4510.4
68DRESCHER Jonas 1159M 18-249M 6600:05:45.65+00:01:435:4510.4
69SHKURLOV Aleksandr 1402M 30-3415M 6700:05:46.60+00:01:445:4610.4
70BUENK Peter 1815M 40-449M 6800:05:46.65+00:01:445:4710.4
71LEMA Damián Espasandín 1541M 30-3416M 6900:05:47.65+00:01:455:4810.3
72PASTUSZKA Paweł 1449M 30-3417M 7000:05:48.20+00:01:455:4810.3
73BURTON James 1630M 35-396M 7100:05:49.15+00:01:465:5010.3
74KAŁUŻNY Adam 1466M 30-3418M 7200:05:49.35+00:01:465:4910.3
75DAM Nikolaj M 1005M Elite23M 7300:05:50.20+00:01:475:5010.3
76BRITO Mateo Fernandes 1644M 35-397M 7400:05:50.45+00:01:475:5110.3
77PIOMBONI Nicolò 1474M 30-3419M 7500:05:50.65+00:01:485:5110.3
78SCHINA Loris 1344M 25-297M 7600:05:51.10+00:01:485:5110.3
79DEPEDRI Raffaele 1020M Elite24M 7700:05:51.50+00:01:485:5210.2
80BELLODI Andrea 1547M 30-3420M 7800:05:52.00+00:01:495:5210.2
81VOROBOK Lukáš 1241M 25-298M 7900:05:52.05+00:01:495:5210.2
82BRØNDSEL Jonas 1084M Elite25M 8000:05:52.15+00:01:495:5210.2
83MIKRUT Jakub 1181M 18-2410M 8100:05:52.40+00:01:495:5210.2
84BERTOLASI Marco 1535M 30-3421M 8200:05:52.40+00:01:495:5310.2
85KATOLIKAU Raman 1400M 30-3422M 8300:05:52.55+00:01:505:5210.2
86BURÉN Johan 1639M 35-398M 8400:05:52.55+00:01:505:5210.2
87SAŁATA Marcin 1478M 30-3423M 8500:05:52.60+00:01:505:5310.2
88FRANCESCHI Marco 1313M 25-299M 8600:05:52.85+00:01:505:5310.2
89MADSEN Tommy 1631M 35-399M 8700:05:53.35+00:01:505:5410.2
90CANACCINI Denis 1819M 40-4410M 8800:05:53.35+00:01:505:5310.2
91SHIPLEY Chris 1410M 30-3424M 8900:05:53.45+00:01:505:5310.2
92SCHYBERG Oscar 1788M 35-3910M 9000:05:53.70+00:01:515:5310.2
93SJÖLIN Johan 1487M 30-3425M 9100:05:53.85+00:01:515:5310.2
94BUDZISZ Krzysztof 1836M 40-4411M 9200:05:54.60+00:01:525:5510.1
95SAVITSKI Andrei 1766M 35-3911M 9300:05:54.60+00:01:525:5510.1
96CARMIGNANI Alessio 1401M 30-3426M 9400:05:54.80+00:01:525:5510.1
97THUESEN Margrethe Langhoff 1137W Elite3K 300:05:55.30+00:01:525:5510.1
98JEVTIC Sasa 1518M 30-3427M 9500:05:55.30+00:01:525:5610.1
99TOMASIK Alan 1268M 25-2910M 9600:05:57.00+00:01:545:5710.1
100DOMÍNGUEZ Eduardo Díaz 1083M Elite26M 9700:05:57.15+00:01:545:5710.1
101KRAUS Christian 1022M Elite27M 9800:05:57.35+00:01:545:5710.1
102LOPE Jesús Prieto De 1085M Elite28M 9900:05:57.45+00:01:545:5710.1
103NITTIS Andrea De 1328M 25-2911M 10000:05:57.65+00:01:555:5810.1
104TAKÁČ Vladimír 1848M 40-4412M 10100:05:58.45+00:01:555:5910
105SCHÄFER Martin 1024M Elite29M 10200:05:59.15+00:01:565:5910
106SCHUTTEN Rutger 1599M 30-3428M 10300:05:59.55+00:01:575:5910
107PRUSAK Piotr 1413M 30-3429M 10400:06:00.50+00:01:576:0010
108WALNESTEDT Malin 2443  100:06:00.70+00:01:586:0110
109MEEL Jim Van Der 1399M 30-3430M 10500:06:00.85+00:01:586:0010
110JAROSZ Dawid 1555M 30-3431M 10600:06:01.00+00:01:586:0110
111NAJDEREK Michał 2395M Journeyman2M 10700:06:02.00+00:01:596:029.9
112VANDEWALLE Billy 1227M 25-2912M 10800:06:02.05+00:01:596:029.9
113LINTHORST Jesse 1192M 18-2411M 10900:06:02.55+00:02:006:039.9
114GUDMUNDSSON Zebastian 1034M Elite30M 11000:06:02.90+00:02:006:039.9
115БЕЗЛЕПКИН Андрей 1880M 40-4413M 11100:06:03.00+00:02:006:039.9
116DICKSON Mark 1807M 40-4414M 11200:06:03.20+00:02:006:039.9
117CAMBRIDGE Luke 1605M 30-3432M 11300:06:03.60+00:02:016:039.9
118JOHNSTON Keith 1594M 30-3433M 11400:06:03.60+00:02:016:049.9
119BOCHAROV Georgii 1061M Elite31M 11500:06:03.90+00:02:016:049.9
120KRAUCHANKA Aliaksandr 1649M 35-3912M 11600:06:04.50+00:02:016:049.9
121CIARDELLI Dario 1785M 35-3913M 11700:06:04.50+00:02:016:049.9
122ZGUTKA Tomasz 2212M 45-491M 11800:06:05.10+00:02:026:069.8
123NUTIL Michal 1345M 25-2913M 11900:06:05.80+00:02:036:069.8
124SÜHLER Kim 1886M 40-4415M 12000:06:06.25+00:02:036:069.8
125BROEZE Tom 1071M Elite32M 12100:06:06.60+00:02:046:069.8
126EVGENII Trivashkevich 1152M 18-2412M 12200:06:06.75+00:02:046:079.8
127OOSTEROM Frank 1008M Elite33M 12300:06:06.90+00:02:046:079.8
128MASŁOWSKI Wojciech 2416M Journeyman3M 12400:06:08.25+00:02:056:089.8
129HERNANDEZ Eric Seres 1527M 30-3434M 12500:06:08.50+00:02:056:099.8
130OLKHOVSKII Dmitri 1027M Elite34M 12600:06:09.80+00:02:076:109.7
131GYÖMREI Máté 1557M 30-3435M 12700:06:10.20+00:02:076:119.7
132BOARDER Robert 1805M 40-4416M 12800:06:10.30+00:02:076:119.7
133LYNG Rasmus 2353M Journeyman4M 12900:06:10.35+00:02:076:109.7
134PROKOPENKO Vadim 1416M 30-3436M 13000:06:10.55+00:02:086:119.7
135MARUSZEWSKI Marcin 1624M 35-3914M 13100:06:10.65+00:02:086:109.7
136HEIJLIGER Daan 2192M 45-492M 13200:06:10.75+00:02:086:119.7
137FARKOWSKI Konrad 1475M 30-3437M 13300:06:11.25+00:02:086:119.7
138BERNHARDSSON Kristofer Abrahamsson 1082M Elite35M 13400:06:11.35+00:02:086:119.7
139GRABARCZYK Wojciech 1930M 40-4417M 13500:06:11.80+00:02:096:129.7
140MARTYIN László 1279M 25-2914M 13600:06:11.95+00:02:096:129.7
141WAGEMANS Tom 1426M 30-3438M 13700:06:12.50+00:02:096:139.7
142SEMENCHENKO Vladimir 1252M 25-2915M 13800:06:12.55+00:02:106:139.7
143REN Emil Friis 1039M Elite36M 13900:06:12.65+00:02:106:139.7
144MICHEL Jérémy 1074M Elite37M 14000:06:13.10+00:02:106:139.7
145KOŁODZIEJCZYK Kamil 1460M 30-3439M 14100:06:13.35+00:02:106:139.7
146GOLTERMANN Arne 1070M Elite38M 14200:06:13.40+00:02:106:139.7
147CHRISTENSEN Brian Viborg 2242M 45-493M 14300:06:13.75+00:02:116:139.7
148KALININ Jarosław 1064M Elite39M 14400:06:13.95+00:02:116:149.6
149MENSINK Nick 1455M 30-3440M 14500:06:14.20+00:02:116:159.6
150ONISZCZUK Bartosz 1687M 35-3915M 14600:06:14.60+00:02:126:159.6
151BANNISTER Alex 1564M 30-3441M 14700:06:15.15+00:02:126:159.6
152DRÁBEK Lukáš 1147M 18-2413M 14800:06:15.35+00:02:126:159.6
153GOMEZ Manuel Valero 1837M 40-4418M 14900:06:16.00+00:02:136:169.6
154JANUSZEWSKI Bartosz 1263M 25-2916M 15000:06:16.15+00:02:136:179.5
155FILIPOVICH Aliaksei 1675M 35-3916M 15100:06:16.25+00:02:136:179.5
156POWAŻNY Marek 2444  200:06:16.25+00:02:136:169.6
157HORWARD Adrien 1285M 25-2917M 15200:06:16.40+00:02:136:179.5
158PELISSIER Benoit 1423M 30-3442M 15300:06:16.80+00:02:146:179.5
159DEERY Craig 2219M 45-494M 15400:06:17.05+00:02:146:179.5
160JAKUBCZAK Marcin 1670M 35-3917M 15500:06:17.40+00:02:146:179.5
161MYKOLA Fomishkin 1411M 30-3443M 15600:06:17.45+00:02:146:179.5
162IBBOTSON Ryan 1658M 35-3918M 15700:06:17.60+00:02:156:189.5
163"CHAPLÍN" Jose 1944M 40-4419M 15800:06:17.90+00:02:156:189.5
164ASMUSSEN Andreas Munk 1398M 30-3444M 15900:06:17.95+00:02:156:189.5
165HANSEN Mads Voss 1183M 18-2414M 16000:06:18.30+00:02:156:189.5
166JAKOBSSON Niklas 1559M 30-3445M 16100:06:18.75+00:02:166:199.5
167FIŠER Rostislav 2270M 45-495M 16200:06:19.75+00:02:176:209.5
168SZCZEPANIAK Paweł 1225M 25-2918M 16300:06:20.10+00:02:176:209.5
169MARCHAND Manuel 1855M 40-4420M 16400:06:20.10+00:02:176:209.5
170GUZ Grzegorz 1916M 40-4421M 16500:06:20.15+00:02:176:209.5
171MILLAN Daniel Osma 1053M Elite40M 16600:06:20.35+00:02:176:219.4
172MACÍAS David Delgado 1335M 25-2919M 16700:06:20.35+00:02:176:209.5
173MAES Michaël 1266M 25-2920M 16800:06:21.00+00:02:186:219.4
174VASYA Dudnikov 1144M 18-2415M 16900:06:21.15+00:02:186:219.4
175GORDILLO Israel Vargas 1202M 18-2416M 17000:06:21.25+00:02:186:229.4
176KARLSSON Karin 1135W Elite4K 400:06:21.50+00:02:186:219.4
177JOLES Roël 1452M 30-3446M 17100:06:21.75+00:02:196:219.4
178RACZEK Radosław 1260M 25-2921M 17200:06:21.95+00:02:196:229.4
179RUMMEL Rune 1781M 35-3919M 17300:06:21.95+00:02:196:229.4
180MUSSCHE Frans 1274M 25-2922M 17400:06:22.45+00:02:196:239.4
181ŁUKASZ Lorenc 1830M 40-4422M 17500:06:22.90+00:02:206:239.4
182CIMLER Jiří 1042M Elite41M 17600:06:23.05+00:02:206:239.4
183KAMIESHKOV Denys 1806M 40-4423M 17700:06:23.05+00:02:206:239.4
184KAREL Štěpán 1072M Elite42M 17800:06:23.20+00:02:206:239.4
185GUIJARRO Victor Pezonaga 1391M 25-2923M 17900:06:23.95+00:02:216:249.4
186PIRNER Christian 1935M 40-4424M 18000:06:24.00+00:02:216:249.4
187MILHANO Carlos 2299M 50-541M 18100:06:24.30+00:02:216:249.4
188MOLLOY Paul 1728M 35-3920M 18200:06:24.35+00:02:216:249.4
189TARKA Andrzej 1821M 40-4425M 18300:06:24.50+00:02:216:249.4
190MÓWIŃSKI Patryk 1277M 25-2924M 18400:06:25.30+00:02:226:259.4
191ORKE Einar 1425M 30-3447M 18500:06:25.35+00:02:226:269.3
192ALEXEEV Alexey 2400M Journeyman5M 18600:06:25.45+00:02:226:259.4
193NIJLEN Itse Van 1154M 18-2417M 18700:06:25.75+00:02:236:269.3
194POŚPIECH Krzysztof Pawlak 1296M 25-2925M 18800:06:25.90+00:02:236:259.4
195RÖNNBERG Mikael 1870M 40-4426M 18900:06:25.90+00:02:236:269.3
196CAVICCHIOLO Luca 1355M 25-2926M 19000:06:26.10+00:02:236:269.3
197ZAKOLODKIN Roman 1230M 25-2927M 19100:06:26.80+00:02:246:279.3
198GERTSEN Carsten 1803M 40-4427M 19200:06:26.95+00:02:246:269.3
199BLANKENBURGH David 1317M 25-2928M 19300:06:27.40+00:02:246:279.3
200ANATOLI Kamyshkailo 1751M 35-3921M 19400:06:28.00+00:02:256:289.3
201PARYGINA Svetlana 2026W 25-291K 500:06:28.10+00:02:256:289.3
202JAGODZIŃSKI Karol 1293M 25-2929M 19500:06:28.25+00:02:256:289.3
203PIANO Andrea Del 1254M 25-2930M 19600:06:28.35+00:02:256:289.3
204SERAFIŃSKI Maciej 1158M 18-2418M 19700:06:28.45+00:02:256:289.3
205MĘDYGRAŁ Krystian 1290M 25-2931M 19800:06:28.50+00:02:256:299.3
206PELLEREI Luca 2267M 45-496M 19900:06:28.55+00:02:266:299.3
207SANTANA Aday Luis Garcia 1026M Elite43M 20000:06:29.15+00:02:266:299.3
208SOUSA Bruno 1817M 40-4428M 20100:06:29.40+00:02:266:309.2
209PEDRIANES Samuel Hernández 1048M Elite44M 20200:06:29.70+00:02:276:309.2
210DIMITRY Dotrimont 1367M 25-2932M 20300:06:29.75+00:02:276:309.2
211PRAT Victor Suarez 1080M Elite45M 20400:06:29.80+00:02:276:309.2
212ATAZ Daniel Blanco 1341M 25-2933M 20500:06:30.80+00:02:286:319.2
213LINDBERG Nicklas 1905M 40-4429M 20600:06:31.40+00:02:286:329.2
214BÄR Marcel 1430M 30-3448M 20700:06:31.50+00:02:286:319.2
215DRAGSTED Andreas 1038M Elite46M 20800:06:32.10+00:02:296:329.2
216BANDURKA Viktor 1866M 40-4430M 20900:06:32.20+00:02:296:339.2
217SENTEN Simon Van 1298M 25-2934M 21000:06:32.40+00:02:296:339.2
218CAPARROS Nathan 1021M Elite47M 21100:06:32.45+00:02:296:329.2
219KUBER Andrzej 1569M 30-3449M 21200:06:32.55+00:02:306:329.2
220ZAWILIŃSKI Mateusz 1351M 25-2935M 21300:06:33.35+00:02:306:349.1
221HENDZEL Miłosz 1667M 35-3922M 21400:06:34.30+00:02:316:349.1
222VIKTOROVICH Gruzdev Vladimir 1235M 25-2936M 21500:06:34.55+00:02:326:349.1
223GAWRYLUK Marcin 1587M 30-3450M 21600:06:35.10+00:02:326:359.1
224GUIBERT Romain 1245M 25-2937M 21700:06:35.40+00:02:326:359.1
225JANSEN C.a. 1103W Elite5K 600:06:35.80+00:02:336:369.1
226CLAESSON Albin 1177M 18-2419M 21800:06:35.80+00:02:336:359.1
227DZMITRY Gidlevski 1476M 30-3451M 21900:06:36.05+00:02:336:369.1
228HORVAT Zsolt 1977W 18-241K 700:06:36.05+00:02:336:369.1
229JANUS Leszek 1758M 35-3923M 22000:06:36.65+00:02:346:379.1
230KRZYSTYNIAK Robert 2195M 45-497M 22100:06:36.95+00:02:346:379.1
231VORVIS Chris 1067M Elite48M 22200:06:37.00+00:02:346:379.1
232SLITS Peter 2273M 50-542M 22300:06:37.55+00:02:356:379.1
233JOHANSSON Elin 1119W Elite6K 800:06:38.10+00:02:356:389
234PORTON David 1736M 35-3924M 22400:06:38.15+00:02:356:389
235JOKSTAD Anette Heimli 1124W Elite7K 900:06:38.45+00:02:356:399
236MARTIN Darren 1311M 25-2938M 22500:06:38.75+00:02:366:389
237DANIELKIEWICZ Tomasz 1422M 30-3452M 22600:06:39.00+00:02:366:399
238NOVIN Thomas 1747M 35-3925M 22700:06:39.40+00:02:366:399
239LEVERAAS Katrine Haaland 2043W 25-292K 1000:06:40.30+00:02:376:409
240BUCCARELLA Luca 1151M 18-2420M 22800:06:40.50+00:02:376:419
241TRĄBIŃSKI Grzegorz 1638M 35-3926M 22900:06:40.50+00:02:376:419
242DASZKIEWICZ Małgorzata 1118W Elite8K 1100:06:40.85+00:02:386:419
243YANIN Denis 1651M 35-3927M 23000:06:41.15+00:02:386:419
244ALEKSEI Giatcintov 1770M 35-3928M 23100:06:41.35+00:02:386:419
245HANYK Lukáš 1231M 25-2939M 23200:06:41.75+00:02:396:429
246CARRASCO Manuel 1677M 35-3929M 23300:06:41.75+00:02:396:419
247MAKARSKI Siarhei 2409M Journeyman6M 23400:06:41.80+00:02:396:429
248PŁÓCIENNIK Piotr 1461M 30-3453M 23500:06:42.00+00:02:396:429
249LARSSON Johannes 1327M 25-2940M 23600:06:42.65+00:02:406:429
250SALOMÄKI Ville 2398M Journeyman7M 23700:06:42.65+00:02:406:438.9
251SLIEPKA Ivan 2410M Journeyman8M 23800:06:42.65+00:02:406:429
252ZIOBRO Chris 2402M Journeyman9M 23900:06:42.65+00:02:406:429
253DEMONTY Nicolas 1161M 18-2421M 24000:06:43.15+00:02:406:438.9
254KARLSSON Line 2425W Journeyman1K 1200:06:43.35+00:02:406:438.9
255MARCO Bischof 1338M 25-2941M 24100:06:43.95+00:02:416:448.9
256DAVID Grognet 1185M 18-2422M 24200:06:44.05+00:02:416:448.9
257MIRA Lorena González 1125W Elite9K 1300:06:44.80+00:02:426:458.9
258VEPŘEK Martin 1249M 25-2942M 24300:06:44.85+00:02:426:448.9
259BELOV Artur 1052M Elite49M 24400:06:44.95+00:02:426:458.9
260ЕВГЕНИЙ Проскуряков 1055M Elite50M 24500:06:45.70+00:02:436:468.9
261REKUTIN Ivan 1451M 30-3454M 24600:06:46.10+00:02:436:468.9
262CAPPELEN Dan 1799M 35-3930M 24700:06:46.20+00:02:436:478.8
263HELGERS Niels 1733M 35-3931M 24800:06:46.50+00:02:436:468.9
264TIMMERMANS Geert 1280M 25-2943M 24900:06:46.95+00:02:446:478.8
265BRÄHMIG Mattes 1458M 30-3455M 25000:06:47.35+00:02:446:478.8
266SINIGAGLIA William 1505M 30-3456M 25100:06:47.40+00:02:446:488.8
267MIKHINA Anastasia 1108W Elite10K 1400:06:48.45+00:02:456:498.8
268POWELL Alf 1971M 13-172M 25200:06:49.15+00:02:466:498.8
269MANTYCKI Rafał 1329M 25-2944M 25300:06:49.55+00:02:476:508.8
270TRALDI Davide 1184M 18-2423M 25400:06:50.05+00:02:476:508.8
271HÄRKÖNEN Elin 1132W Elite11K 1500:06:50.35+00:02:476:508.8
272WISPELWEIJ Sem 1142M 18-2424M 25500:06:50.40+00:02:476:518.8
273JOHANSSON Irma 2329W 13-171K 1600:06:50.40+00:02:476:508.8
274DIETRICH Raphaël 1371M 25-2945M 25600:06:50.55+00:02:486:518.8
275ALFREDSSON Tobias 1942M 40-4431M 25700:06:50.60+00:02:486:508.8
276ARIBAUD Baptiste 1056M Elite51M 25800:06:50.80+00:02:486:518.8
277LEARY Tony 2295M 50-543M 25900:06:51.35+00:02:486:528.7
278SCHWEIGERT Matthias 1377M 25-2946M 26000:06:52.35+00:02:496:528.7
279SHTYPULIAK Sergii 2375M Journeyman10M 26100:06:52.35+00:02:496:528.7
280SAENZ Juancri 1952M 40-4432M 26200:06:53.35+00:02:506:538.7
281VILKOV Grigory 1802M 40-4433M 26300:06:54.00+00:02:516:548.7
282NIELSEN Søren 1543M 30-3457M 26400:06:54.15+00:02:516:548.7
283LEJK Beniamin 1357M 25-2947M 26500:06:54.30+00:02:516:548.7
284ÖBERG Robin 1515M 30-3458M 26600:06:54.40+00:02:516:548.7
285ZAPPA Stefano 1539M 30-3459M 26700:06:54.65+00:02:526:558.7
286CRESPO Antonio Rubio 1303M 25-2948M 26800:06:54.95+00:02:526:558.7
287LIBERADZKI Marcin 2417M Journeyman11M 26900:06:55.15+00:02:526:558.7
288WALTILLA Marcus 1578M 30-3460M 27000:06:55.55+00:02:536:568.7
289MANNO Marco 1521M 30-3461M 27100:06:55.85+00:02:536:568.7
290RAMAS Andrea Martínez 2433W Journeyman2K 1700:06:56.00+00:02:536:568.7
291FABRÈGUE Rémi 1395M 30-3462M 27200:06:56.50+00:02:536:578.6
292TEUNISSEN Donar 2198M 45-498M 27300:06:57.45+00:02:546:588.6
293BROOKSON Mervyn 2415M Journeyman12M 27400:06:57.50+00:02:546:588.6
294KUIK Thomas 1140M 18-2425M 27500:06:58.00+00:02:556:588.6
295SOBIERAJSKI Krzysztof 1966M 13-173M 27600:06:58.05+00:02:556:588.6
296VILA Jose 1169M 18-2426M 27700:06:58.10+00:02:556:588.6
297PORTA Simona 1114W Elite12K 1800:06:58.35+00:02:556:588.6
298HELLSTRAND Rickard 2211M 45-499M 27800:06:58.40+00:02:556:588.6
299LUND Maria 1989W 18-242K 1900:06:58.45+00:02:556:598.6
300PRYKOWSKI Tomasz 1256M 25-2949M 27900:06:59.00+00:02:566:598.6
301KRÁSA David 1811M 40-4434M 28000:06:59.00+00:02:566:598.6
302KONARSKI Tomasz 1716M 35-3932M 28100:06:59.35+00:02:566:598.6
303JOULIN Lisa 2170W 40-441K 2000:06:59.35+00:02:566:598.6
304VERHEUL Paul Pieter Cornelis 1316M 25-2950M 28200:06:59.65+00:02:576:598.6
305ALEKSANDR Anokhin 1614M 30-3463M 28300:06:59.90+00:02:577:008.6
306ANANIN Artem 1406M 30-3464M 28400:07:00.00+00:02:577:008.6
307PETERKA Tomáš 1368M 25-2951M 28500:07:00.05+00:02:577:008.6
308LILIENBERG Johan 1842M 40-4435M 28600:07:00.05+00:02:577:008.6
309RUYTER Roy De 1092M Elite52M 28700:07:00.15+00:02:577:008.6
310ALEXEY Davydov 2389M Journeyman13M 28800:07:00.15+00:02:577:008.6
311GRZONDKO Mateusz 1272M 25-2952M 28900:07:00.25+00:02:577:008.6
312MATUSIK Adam 1534M 30-3465M 29000:07:00.60+00:02:587:008.6
313YANN Chambert 1526M 30-3466M 29100:07:01.65+00:02:597:018.6
314SAVIN Aleksei 1408M 30-3467M 29200:07:02.40+00:02:597:028.5
315ELSGART Niklas 1352M 25-2953M 29300:07:02.45+00:02:597:028.5
316PEHTSERAVA Tatsiana 2077W 30-341K 2100:07:02.45+00:02:597:028.5
317PIANGIAMORE Ivano 1959M 40-4436M 29400:07:02.45+00:02:597:028.5
318KACPERSKI Jacek 2408M Journeyman14M 29500:07:02.80+00:03:007:038.5
319VAVŘIČKA Stanislav 2411M Journeyman15M 29600:07:03.20+00:03:007:038.5
320DAELEWYN Koen 1885M 40-4437M 29700:07:03.30+00:03:007:038.5
321REGNELL Fredrick 1579M 30-3468M 29800:07:03.70+00:03:017:048.5
322POCATERRA Simone 1196M 18-2427M 29900:07:03.75+00:03:017:048.5
323OVECHKIN Taras 1686M 35-3933M 30000:07:03.90+00:03:017:048.5
324SEBASTIEN Fage 1941M 40-4438M 30100:07:04.60+00:03:027:058.5
325JUSTESEN Simon 1384M 25-2954M 30200:07:04.65+00:03:027:058.5
326LOVÉN Jonathan 1793M 35-3934M 30300:07:04.65+00:03:027:058.5
327PYDZINSKI Tomasz 1922M 40-4439M 30400:07:04.90+00:03:027:058.5
328MACHTYL Zygmunt 2235M 45-4910M 30500:07:04.95+00:03:027:058.5
329FERRIS Víctor Parra 1900M 40-4440M 30600:07:05.10+00:03:027:058.5
330TOMAKA Tomasz 1284M 25-2955M 30700:07:05.15+00:03:027:058.5
331TAYLOR Adam 1765M 35-3935M 30800:07:06.10+00:03:037:068.5
332ANASTASIA Papadogianni 2431W Journeyman3K 2200:07:07.35+00:03:047:078.4
333CARDINALI Rebecca 2321W 13-172K 2300:07:07.45+00:03:047:088.4
334VOSSLER Martin 1688M 35-3936M 30900:07:07.90+00:03:057:088.4
335PETELCZYC Piotr 2201M 45-4911M 31000:07:09.50+00:03:067:098.4
336LARSSON Madeleine 2123W 35-391K 2400:07:09.70+00:03:077:108.4
337RAMOS Kevin Do Coito 2372M Journeyman16M 31100:07:09.75+00:03:077:098.4
338NORDAHL Tobias 2407M Journeyman17M 31200:07:10.70+00:03:087:118.4
339LORENZO Alberto Lopez 1913M 40-4441M 31300:07:11.20+00:03:087:128.3
340DEVILLIER Gérard 2282M 50-544M 31400:07:11.65+00:03:097:118.4
341LARSEN Glen 1562M 30-3469M 31500:07:11.70+00:03:097:118.4
342BUGAJ Mariusz 1552M 30-3470M 31600:07:11.75+00:03:097:128.3
343ALBERTOS Javier 1933M 40-4442M 31700:07:12.85+00:03:107:138.3
344VERLAAT Kees 1388M 25-2956M 31800:07:13.00+00:03:107:138.3
345ALMERSKÄR Viktor 1150M 18-2428M 31900:07:13.30+00:03:107:148.3
346TROMBELLI Marco 1759M 35-3937M 32000:07:13.60+00:03:117:138.3
347KERSTEN Max 1153M 18-2429M 32100:07:14.15+00:03:117:158.3
348ONOFRIENKO Karina 1988W 18-243K 2500:07:14.20+00:03:117:148.3
349YAROSLAV Slavushchev 1236M 25-2957M 32200:07:14.45+00:03:117:158.3
350BERGSTRÖM Robert 1915M 40-4443M 32300:07:14.70+00:03:127:158.3
351LOZANO Miguel Ángel Charro 2205M 45-4912M 32400:07:14.70+00:03:127:158.3
352BYRCZEK Michał 1493M 30-3471M 32500:07:15.05+00:03:127:158.3
353PEDERSEN Christian 2190M 45-4913M 32600:07:15.30+00:03:127:158.3
354VEDERSØ Mik 1828M 40-4444M 32700:07:15.55+00:03:137:168.3
355MEIDENBAUER Joachim 1741M 35-3938M 32800:07:15.80+00:03:137:168.3
356BONESI Samuel 1787M 35-3939M 32900:07:16.05+00:03:137:168.3
357MORIES Arturo Saez 2381M Journeyman18M 33000:07:16.65+00:03:147:178.2
358TREZISE Thomas 2388M Journeyman19M 33100:07:16.80+00:03:147:178.2
359FLEISCHHAUER Felix 1312M 25-2958M 33200:07:18.40+00:03:157:198.2
360GARCIA Adrián Ruiz 1405M 30-3472M 33300:07:18.80+00:03:167:198.2
361KOLAŘÍK Lukáš 2414M Journeyman20M 33400:07:18.95+00:03:167:198.2
362ARCE Domingo Buendia 1173M 18-2430M 33500:07:19.25+00:03:167:198.2
363KRUS Viktor 1620M 35-3940M 33600:07:20.65+00:03:187:208.2
364DOLATA Krzysztof 1695M 35-3941M 33700:07:20.75+00:03:187:208.2
365DITLEV Ditte Bruun 2429W Journeyman4K 2600:07:21.65+00:03:197:228.1
366COMMANDEUR Tjeerd 1522M 30-3473M 33800:07:21.90+00:03:197:228.1
367ENDERBY Rich 1729M 35-3942M 33900:07:22.15+00:03:197:228.1
368CHRISTIANSEN Allan 2366M Journeyman21M 34000:07:22.35+00:03:197:228.1
369KIND Pia 2173W 40-442K 2700:07:22.95+00:03:207:238.1
370ŚWIĄDER Andrzej 1813M 40-4445M 34100:07:23.45+00:03:207:238.1
371LEERBAEK Mads 1965M 13-174M 34200:07:23.50+00:03:207:238.1
372ŁUCZAK Łukasz 1525M 30-3474M 34300:07:24.15+00:03:217:248.1
373BABUŠKOVÁ Stanislava 2171W 40-443K 2800:07:24.35+00:03:217:258.1
374WIELECHOWSKA Natalia 1096W Elite13K 2900:07:24.75+00:03:227:258.1
375WITEK Paweł 1373M 25-2959M 34400:07:25.00+00:03:227:258.1
376WALNESTEDT Malin 1995W 18-244K 3000:07:25.00+00:03:227:258.1
377ЮРЬЕВИЧ Петров Виктор 1086M Elite53M 34500:07:25.50+00:03:227:258.1
378KAUFMANN Nikolaj 1920M 40-4446M 34600:07:25.80+00:03:237:258.1
379OLSEN Mads-Christian Brill 1516M 30-3475M 34700:07:26.65+00:03:247:278.1
380PIZZO Sebastiano Antonio 2421M Journeyman22M 34800:07:26.65+00:03:247:278.1
381ГОВОРОВ Андрей 1045M Elite54M 34900:07:26.80+00:03:247:278.1
382URBANO David Quintana 1533M 30-3476M 35000:07:28.05+00:03:257:288
383REZNIK Anton 1243M 25-2960M 35100:07:28.50+00:03:257:298
384JESKA Tomasz 1948M 40-4447M 35200:07:28.55+00:03:267:288
385ANTSI Siarhei 2361M Journeyman23M 35300:07:28.80+00:03:267:298
386YANINA Elena 2130W 35-392K 3100:07:29.10+00:03:267:298
387BERGLIND Thobias Olsson 2228M 45-4914M 35400:07:29.65+00:03:277:298
388RAMOS Sérgio 2196M 45-4915M 35500:07:29.90+00:03:277:308
389TURJANYI Janos 1889M 40-4448M 35600:07:30.65+00:03:287:318
390CHRISTENSEN Katja 1101W Elite14K 3200:07:30.70+00:03:287:308
391LLAPASSET Victor 1314M 25-2961M 35700:07:31.45+00:03:287:318
392TULLOCH Jon 'abs' 1861M 40-4449M 35800:07:31.65+00:03:297:328
393MAKAROV Andrei 1246M 25-2962M 35900:07:31.75+00:03:297:328
394JESSING Iben 2014W 25-293K 3300:07:32.15+00:03:297:337.9
395VRIES Florian De 1420M 30-3477M 36000:07:32.30+00:03:297:337.9
396EMMANUEL Roszak 2292M 50-545M 36100:07:32.30+00:03:297:328
397PERSSON Robert 2221M 45-4916M 36200:07:32.80+00:03:307:328
398LARSSON Toni 1378M 25-2963M 36300:07:32.95+00:03:307:337.9
399GESSLER Sergej 1447M 30-3478M 36400:07:33.60+00:03:317:347.9
400WISSING Arjan 1659M 35-3943M 36500:07:33.60+00:03:317:337.9
401KEANE Josh 1278M 25-2964M 36600:07:33.70+00:03:317:347.9
402PARET Arnault 2238M 45-4917M 36700:07:34.25+00:03:317:347.9
403VERBEERST Tommy 1470M 30-3479M 36800:07:34.75+00:03:327:357.9
404NIELSEN Daniel Birk 1548M 30-3480M 36900:07:35.35+00:03:327:367.9
405MIKLÓS Fábián 1623M 35-3944M 37000:07:35.45+00:03:327:367.9
406SUCHNA David 1563M 30-3481M 37100:07:36.00+00:03:337:367.9
407BENITEZ Estefania Del Pino Ramos 2430W Journeyman5K 3400:07:37.70+00:03:357:387.9
408ROSECKÝ Patrik 1251M 25-2965M 37200:07:37.90+00:03:357:387.9
409GALLI Dario 1892M 40-4450M 37300:07:38.75+00:03:367:397.8
410DOUBEK Milan 1431  300:07:38.80+00:03:367:397.8
411DEMONTY Loic 1160M 18-2431M 37400:07:38.90+00:03:367:397.8
412DERMER Johanna 2125W 35-393K 3500:07:39.50+00:03:367:397.8
413LEGANDER Simon 1324M 25-2966M 37500:07:39.55+00:03:377:407.8
414TROKHYMETS Oleksandr 2403M Journeyman24M 37600:07:39.65+00:03:377:407.8
415NICOLAS Jean-Philippe 1801M 35-3945M 37700:07:40.20+00:03:377:407.8
416BELT Rico Van Den 1748M 35-3946M 37800:07:40.50+00:03:377:407.8
417RANDRUP-THOMSEN Rune 2373M Journeyman25M 37900:07:40.65+00:03:387:417.8
418JOHN Minakakis 2376M Journeyman26M 38000:07:41.00+00:03:387:417.8
419SANZ Pablo López 2385M Journeyman27M 38100:07:42.65+00:03:407:437.8
420MIODEK Adrian 1665M 35-3947M 38200:07:43.35+00:03:407:447.8
421SPRAWKA Marta 1138  400:07:43.40+00:03:407:447.8
422DEDIEU Semi 1600M 30-3482M 38300:07:43.55+00:03:417:437.8
423SLUIS Richard 1637M 35-3948M 38400:07:43.55+00:03:417:447.8
424ROBBRECHT Chris 1156M 18-2432M 38500:07:43.95+00:03:417:447.8
425JACIÓW Paweł 1389M 25-2967M 38600:07:43.95+00:03:417:447.8
426KURACH Stanislaw 2288M 50-546M 38700:07:44.30+00:03:417:447.8
427TOLAK Michał 1689M 35-3949M 38800:07:44.65+00:03:427:447.8
428KOCZOROWSKI Pawel 2363M Journeyman28M 38900:07:45.35+00:03:427:467.7
429KOWALCZYK Dawid 1032M Elite55M 39000:07:47.50+00:03:447:477.7
430GREPPI Niclas 1833M 40-4451M 39100:07:47.60+00:03:457:487.7
431GROOT Bo De 2002W 18-245K 3600:07:48.20+00:03:457:487.7
432SRNSKÝ Daniel 1190M 18-2433M 39200:07:48.55+00:03:467:487.7
433ZHVIKOV Oleg 1321M 25-2968M 39300:07:48.65+00:03:467:487.7
434BLEYS Pascal 2274M 50-547M 39400:07:48.70+00:03:467:497.7
435PAPPERMANN Jens 1672M 35-3950M 39500:07:49.15+00:03:467:497.7
436ROETS Elio 1778M 35-3951M 39600:07:49.95+00:03:477:507.7
437RYDSTRÖM Johan 1674M 35-3952M 39700:07:50.60+00:03:487:507.7
438LENOIR Cyril 1283M 25-2969M 39800:07:52.85+00:03:507:537.6
439HANSEN Jonas 1237M 25-2970M 39900:07:53.75+00:03:517:537.6
440ZIMOŃ Norbert 1604M 30-3483M 40000:07:55.30+00:03:527:557.6
441BOMBA Piotr 1528M 30-3484M 40100:07:55.35+00:03:527:557.6
442SILVA André 1572M 30-3485M 40200:07:56.50+00:03:537:567.6
443ALONSO Jose Bruno 1607M 30-3486M 40300:07:56.60+00:03:547:577.5
444CHRZĄSTEK Maciek 2397M Journeyman29M 40400:07:56.95+00:03:547:577.5
445LINDSGREN Christina 2165W 40-444K 3700:07:57.35+00:03:547:587.5
446KUMOROWSKI Rafał 1754M 35-3953M 40500:07:59.50+00:03:567:597.5
447LINDSTRÖM Algot 2374M Journeyman30M 40600:07:59.50+00:03:568:007.5
448PELUSI Jacopo 1381M 25-2971M 40700:08:01.05+00:03:588:017.5
449CHŁĄD Aleksander 1798M 35-3954M 40800:08:02.35+00:03:598:037.5
450ANDRESEN Petter 2294M 50-548M 40900:08:03.05+00:04:008:037.5
451JØRGENSEN Michael 2358M Journeyman31M 41000:08:05.25+00:04:028:057.4
452VALERII Kaldin 1536M 30-3487M 41100:08:05.90+00:04:038:067.4
453SÉBASTIEN Galdeano 1502M 30-3488M 41200:08:05.90+00:04:038:067.4
454SOTO Hugo Ampudia 1773M 35-3955M 41300:08:06.05+00:04:038:067.4
455WAKTER Jacob 1385M 25-2972M 41400:08:06.15+00:04:038:067.4
456ZIMMER Markus 1540M 30-3489M 41500:08:06.35+00:04:038:067.4
457GARCIA Manuel Caamaño 1643M 35-3956M 41600:08:06.95+00:04:048:077.4
458PARAMONOVA Irina 2133W 35-394K 3800:08:07.05+00:04:048:077.4
459HANSSON Rickard 1947M 40-4452M 41700:08:09.30+00:04:068:107.3
460ELENA Ladnaya 2152W 35-395K 3900:08:09.75+00:04:078:097.4
461BURANI Cristian 1369M 25-2973M 41800:08:10.65+00:04:088:117.3
462LINDSTRÖM Mattias 1242M 25-2974M 41900:08:11.35+00:04:088:127.3
463YVES Pugliari 2199M 45-4918M 42000:08:12.20+00:04:098:127.3
464HÖGSTRÖM Andreas 1746M 35-3957M 42100:08:12.50+00:04:098:137.3
465HORÁK Jaromír 1362M 25-2975M 42200:08:12.55+00:04:108:127.3
466MARINA Lopatina 2047W 25-294K 4000:08:12.75+00:04:108:127.3
467RASSKAZOV Dmitriy 1926M 40-4453M 42300:08:13.15+00:04:108:137.3
468ANDERSEN Steen 2355M Journeyman32M 42400:08:13.85+00:04:118:147.3
469ALVES Duarte 1139M 18-2434M 42500:08:17.50+00:04:148:187.2
470LUNDBERG Sara 2106W 30-342K 4100:08:18.15+00:04:158:197.2
471SMOROŃ Marcin 2370M Journeyman33M 42600:08:19.45+00:04:168:197.2
472ZIELIŃSKI Bartosz 1350M 25-2976M 42700:08:21.10+00:04:188:217.2
473MARTÍNEZ Fernando Giménez 1790M 35-3958M 42800:08:21.55+00:04:198:227.2
474BOANDER Camilla 2021W 25-295K 4200:08:22.10+00:04:198:227.2
475ROBBEMOND Robin 2203M 45-4919M 42900:08:22.40+00:04:198:227.2
476MANGANO Valentina 2432W Journeyman6K 4300:08:25.05+00:04:228:257.1
477DYSZKIEWICZ Grzegorz 1553M 30-3490M 43000:08:25.45+00:04:228:257.1
478JANISZEWSKI Grzegorz 2284M 50-549M 43100:08:25.75+00:04:238:267.1
479RIMONDI Alan 2377M Journeyman34M 43200:08:27.10+00:04:248:277.1
480TRUJILLO Fernando Pajuelo 1287M 25-2977M 43300:08:28.20+00:04:258:287.1
481BRUNO Manca 2302M 50-5410M 43400:08:28.75+00:04:268:297.1
482SAS Merel 1983W 18-246K 4400:08:29.45+00:04:268:297.1
483LUDVIGSSON Antonio 2371M Journeyman35M 43500:08:29.60+00:04:278:307.1
484TOPIČ Karel 1834M 40-4454M 43600:08:30.00+00:04:278:307.1
485NORDH Stefan 2383M Journeyman36M 43700:08:31.65+00:04:298:327
486SOBIERAJSKI Bolesław 1967M 13-175M 43800:08:34.05+00:04:318:347
487WOJAS Jakub 2378M Journeyman37M 43900:08:35.20+00:04:328:357
488EMMERUD Kai Roger 2405M Journeyman38M 44000:08:35.40+00:04:328:367
489ZANONI Matteo 1580M 30-3491M 44100:08:36.70+00:04:348:367
490LIND Magnus 2315M 55+1M 44200:08:40.85+00:04:388:416.9
491PARKHOMCHUK Svitlana 2016W 25-296K 4500:08:43.15+00:04:408:436.9
492GALLE Ruben 2392M Journeyman39M 44300:08:43.65+00:04:418:446.9
493FIGUEIREDO Rui Pedro Cruz 1302M 25-2978M 44400:08:44.15+00:04:418:446.9
494JEŘÁBKOVÁ Petra 2080W 30-343K 4600:08:45.00+00:04:428:456.9
495PROKUDIN Yury 1972M 13-176M 44500:08:45.40+00:04:428:466.8
496ПАЛАНЦЕВИЧ Яна 2055W 25-297K 4700:08:45.70+00:04:438:456.9
497CASTILLO Aythami Castilla Del 1598M 30-3492M 44600:08:47.20+00:04:448:476.8
498VANBERSY Morgane 2439W Journeyman7K 4800:08:48.75+00:04:468:496.8
499GULLAUD Audric 2365M Journeyman40M 44700:08:49.35+00:04:468:506.8
500NOVOSEL Mario 2419M Journeyman41M 44800:08:50.00+00:04:478:506.8
501DELSÖ Markus 1596M 30-3493M 44900:08:53.05+00:04:508:536.8
502VARAKSA Siarhei 2362M Journeyman42M 45000:08:54.90+00:04:528:556.7
503WAWRZYNIAK Slawo 2401M Journeyman43M 45100:08:55.00+00:04:528:556.7
504VELDE Julie Van De 2436W Journeyman8K 4900:08:56.20+00:04:538:566.7
505WIŚNIEWSKI Norbert 1914M 40-4455M 45200:08:56.50+00:04:538:566.7
506GIESBERTS Valérie 2320W 13-173K 5000:09:02.45+00:04:599:036.6
507D'ODÉMONT Grégoire 1757M 35-3959M 45300:09:02.80+00:05:009:036.6
508RENIRIE Ingmar 2393M Journeyman44M 45400:09:06.00+00:05:039:066.6
509ADAMSON Ian 2445  500:09:06.05+00:05:039:066.6
510CAUDELI Jose Miguel Pericás 1409M 30-3494M 45500:09:07.20+00:05:049:076.6
511CAJDERT Johan 1636M 35-3960M 45600:09:09.10+00:05:069:096.6
512GOLUBEVA Svetlana 2138W 35-396K 5100:09:09.40+00:05:069:096.6
513SŁODOWNIK Dominik 1212M 18-2435M 45700:09:12.35+00:05:099:136.5
514HOŁOWACZ Kamil 2396M Journeyman45M 45800:09:13.90+00:05:119:146.5
515STRANDBERG Petra 2440W Journeyman9K 5200:09:15.70+00:05:139:166.5
516THONON Simon 1479M 30-3495M 45900:09:20.35+00:05:179:206.4
517FOLGADO João 2369M Journeyman46M 46000:09:20.95+00:05:189:216.4
518SAAL Patrick 2364M Journeyman47M 46100:09:24.20+00:05:219:256.4
519KREBS Marcel 2360M Journeyman48M 46200:09:24.85+00:05:229:256.4
520BLAZQUEZ Ivan Hernandez 2380M Journeyman49M 46300:09:32.30+00:05:299:336.3
521BRUINING Kirsten 2438W Journeyman10K 5300:09:33.35+00:05:309:346.3
522BEORLEGI Irati 1131W Elite15K 5400:09:34.00+00:05:319:346.3
523RODRIGUES Alexandre 1366M 25-2979M 46400:09:39.00+00:05:369:396.2
524AMBROSE Paul 2359M Journeyman50M 46500:09:43.45+00:05:409:446.2
525SCHELLHAAS Sven 2413M Journeyman51M 46600:09:48.95+00:05:469:496.1
526GUMPRECHT Hannes 2420M Journeyman52M 46700:09:49.50+00:05:469:506.1
527RODRIGUEZ Yessica Izquierdo 2434W Journeyman11K 5500:10:25.10+00:06:2210:255.8
528TOMASZ Tolak 1739M 35-3961M 46800:10:27.80+00:06:2510:275.7
529NILSSON Oscar 2357M Journeyman53M 46900:10:28.50+00:06:2510:285.7
530LOMNICKÁ Tereza 2009W 18-247K 5600:10:38.20+00:06:3510:385.6
531MILBRANT Michał 2399M Journeyman54M 47000:10:39.35+00:06:3610:405.6
532KORBAL Ewelina 2427W Journeyman12K 5700:10:46.40+00:06:4310:465.6
533REDDAWAY Milo 2367M Journeyman55M 47100:10:49.75+00:06:4710:505.5
534MALUENDA Juan 2281M 50-5411M 47200:11:10.35+00:07:0711:115.4
535SMITH Lorraine 2426W Journeyman13K 5800:11:36.85+00:07:3411:375.2
536GODFREY Stanley 2394M Journeyman56M 47300:11:38.35+00:07:3511:385.2
537AINSWORTH Cara 2437W Journeyman14K 5900:11:54.20+00:07:5111:545
538BROCK Kelly 2435W Journeyman15K 6000:12:06.75+00:08:0412:075
539ДЕГТЯРЕВ Иван 1023M Elite56M 47401:06:30.05+01:02:2766:300.9
540KOFOED Leon 1003M Elite57M 47501:06:38.90+01:02:3666:380.9
541CZERWIŃSKI Maciej 1261M 25-2980M 47602:27:19.05+02:23:16147:190.4
542D'ANDREA Giovanni 1857M 40-4456M 47704:21:04.10+04:17:01261:040.2
543LINDBERG Mads 2352M Journeyman57M 478   
544PONTICELLI Luigi 1380M 25-2981M 479   
545SPATARO Orazio 2390M Journeyman58M 480   
546DENTALE Armando 1379M 25-2982M 481   
547FARINELLA Riccardo 2391M Journeyman59M 482   
548GANE Mr Jamie 2368M Journeyman60M 483   
549CUESTA Alberto Sanz 2384M Journeyman61M 484   
550SEBASTIAN Juan Pedro Murga San 2379M Journeyman62M 485   
DQMIERZICKI Marcel 2404M Journeyman00:08:42.25 DQ0:006.9
DQRADAMM Filip 1462M 30-3400:08:45.90 DQ0:006.9
DNCJUNIOR Radek Vostřel 1974M 13-1700:04:06.700:0014.6
DNCMONSTAD Brage Malm 1182M 18-2400:04:11.400:0014.3
DNCTRÜMMEL Mario 1044M Elite00:04:32.100:0013.2
DNCBERGKULLA Robert Peter 2298M 50-5400:04:33.450:0013.2
DNCMARTÍNEZ Rafael 1253M 25-2900:04:40.000:0012.9
DNCARNESEN Stian 1088M Elite00:04:44.800:0012.7
DNCKOPŘIVA Martin 1642M 35-3900:04:45.900:0012.6
DNCLÜPKE Sebastian 1304M 25-2900:04:47.250:0012.5
DNCDAVEY Jeremy 1738M 35-3900:04:58.300:0012.1
DNCDAY Nick 1777M 35-3900:05:02.350:0011.9
DNCBORG Chiara 2098W 30-3400:05:02.900:0011.9
DNCJOFRE Eduardo 1750M 35-3900:05:07.000:0011.7
DNCVICO Jenny 2160W 35-3900:05:07.500:0011.7
DNCBAUMANN Sebastian 1780M 35-3900:05:07.600:0011.7
DNCUHLIG Ronny 1570M 30-3400:05:09.100:0011.7
DNCGREINER Daniel 1666M 35-3900:05:10.100:0011.6
DNCOLSEN Andreas Stahl 1016M Elite00:05:11.450:0011.6
DNCKRÜGER Tim 1412M 30-3400:05:15.400:0011.4
DNCHOGARTH Gavin 1737M 35-3900:05:15.600:0011.4
DNCTARANTINOVA Olga 1099W Elite00:05:20.950:0011.2
DNCMONTAN Johan 1797M 35-3900:05:22.750:0011.1
DNCBARBE Lluis 1002M Elite00:05:24.050:0011.1
DNCPELIZZA Matteo 1145M 18-2400:05:26.800:0011
DNCTAUBE Daniel 1829M 40-4400:05:28.650:0010.9
DNCLIESHOUT Frank Van 1258M 25-2900:05:29.800:0010.9
DNCPLATA Arkadiusz 1554M 30-3400:05:30.400:0010.9
DNCBARKSKOG Fredrik 1627M 35-3900:05:31.500:0010.8
DNCZETTEL Roland 1076M Elite00:05:32.750:0010.8
DNCKOMOSIŃSKI Łukasz 1611M 30-3400:05:36.850:0010.7
DNCCHRISTOPHER Bailly 1286M 25-2900:05:36.900:0010.7
DNCDAVID Sebastien 1068M Elite00:05:37.050:0010.7
DNCHORBACH Lars 1501M 30-3400:05:37.750:0010.7
DNCHARRIBEY Léa 2030W 25-2900:05:38.500:0010.6
DNCŁASKOWSKI Piotr 1588M 30-3400:05:38.850:0010.6
DNCKNOPF Philipp 1028M Elite00:05:40.100:0010.6
DNCKVIKSTAD Rune 2191M 45-4900:05:41.200:0010.6
DNCBOCCON Alexandre 1046M Elite00:05:42.050:0010.5
DNCSUBBOTINAS Vitalijus 1648M 35-3900:05:44.650:0010.4
DNCWAHR-HANSEN Julie Alexandra 1136W Elite00:05:45.100:0010.4
DNCQVIST Tobias 1936M 40-4400:05:45.350:0010.4
DNCADAMEC Jakub 1172M 18-2400:05:46.950:0010.4
DNCKAMMINGA Ruben 1957M 40-4400:05:46.950:0010.4
DNCPETERSEN Ulf 1789M 35-3900:05:47.200:0010.4
DNCGARBERG Aron 1825M 40-4400:05:47.200:0010.3
DNCGUSTAVSSON Benny 1883M 40-4400:05:47.600:0010.3
DNCTHOMSEN Annika Højrup Runegaard 1120W Elite00:05:48.250:0010.3
DNCSJÖGREN Niklas 1621M 35-3900:05:48.800:0010.3
DNCGANOTAKIS Emmanouil 1250M 25-2900:05:48.800:0010.3
DNCPESEK Petr 1087M Elite00:05:49.300:0010.3
DNCRUKATUKL Alexander 1342M 25-2900:05:51.250:0010.3
DNCWENDT Nadine 2035W 25-2900:05:51.450:0010.3
DNCKOZIOŁ Kamil 1330M 25-2900:05:52.050:0010.2
DNCPEDERSEN Peder Ejsing 1359M 25-2900:05:52.500:0010.2
DNCBUGYS Renaldas 1434M 30-3400:05:53.700:0010.2
DNCWILLIS Richard 2248M 45-4900:05:53.750:0010.2
DNCKOČVARA Luboš 1560M 30-3400:05:54.050:0010.2
DNCJIRKU Milan 1608M 30-3400:05:54.650:0010.1
DNCFISCHER Oliver 1259M 25-2900:05:55.600:0010.1
DNCSTRÖM Tomas 1678M 35-3900:05:55.800:0010.1
DNCŠEDA Radek 1820M 40-4400:05:56.500:0010.1
DNCGALLE Wouter 1903M 40-4400:05:57.400:0010.1
DNCCHOUVARDAS Efstratios 2266M 45-4900:05:58.600:0010
DNCTRIBAN Matteo 1531M 30-3400:05:59.200:0010
DNCVERSTUYFT Kwinten 1054M Elite00:05:59.550:0010
DNCSTEPHANE Tchiknavorian 2224M 45-4900:05:59.650:0010
DNCPEÑA Miguel 1306M 25-2900:06:01.000:0010
DNCMAURIZIO Laudenzi 1872M 40-4400:06:01.000:0010
DNCRAEYMAEKERS Siebe 1415M 30-3400:06:01.050:0010
DNCMACIEJEWSKI Krystian 1334M 25-2900:06:01.200:0010
DNCKHOSCHNUD Ramin 1691M 35-3900:06:03.200:009.9
DNCGONZALEZ Eudelio Benitez 1708M 35-3900:06:03.300:009.9
DNCSCHERBA Kamil 1573M 30-3400:06:03.400:009.9
DNCMOLGORA Gabriele 1577M 30-3400:06:03.800:009.9
DNCGODEC Thomas 1767M 35-3900:06:05.000:009.9
DNCNIELSEN Dennis 1480M 30-3400:06:05.400:009.8
DNCKRAWCZYK Tomasz 1009M Elite00:06:05.450:009.9
DNCVACKOVÁ Terka 2061W 25-2900:06:05.450:009.8
DNCSTØLEN Gunhild 2007W 18-2400:06:06.000:009.8
DNCSEGARRA Jossuan 1217M 18-2400:06:06.450:009.8
DNCZIMMERMANN Till 1240M 25-2900:06:07.350:009.8
DNCADOLFSEN Kristoffer 1037M Elite00:06:07.650:009.8
DNCLUTA Halil 1717M 35-3900:06:07.800:009.8
DNCUTTENDORFER Jürgen 2310M 55+00:06:08.100:009.8
DNCCARUSO Dario 1495M 30-3400:06:09.350:009.7
DNCWAKE Adam 1928M 40-4400:06:09.400:009.8
DNCBRZEZIŃSKI Bartosz 1206M 18-2400:06:10.850:009.7
DNCUTTENDORFER Andrea 2341W 50-5400:06:11.200:009.7
DNCČERNÝ Vaclav 1403M 30-3400:06:11.250:009.7
DNCSKAU Anders 1694M 35-3900:06:12.450:009.7
DNCSÖDERSTRÖM Andreas 2223M 45-4900:06:12.500:009.7
DNCMAYRHOFER Jana 2060W 25-2900:06:12.650:009.7
DNCHEATH Daniel 1332M 25-2900:06:12.850:009.7
DNCOCHERETIUK Andrii 1271M 25-2900:06:12.900:009.7
DNCAVRAMIOTIS Konstantinos 1468M 30-3400:06:13.050:009.7
DNCSCHMIDT Holger 2210M 45-4900:06:13.300:009.6
DNCCRUZ Edu 1078M Elite00:06:13.350:009.7
DNCGRENET David 1069M Elite00:06:13.350:009.6
DNCMELIS Giacomo 1370M 25-2900:06:13.800:009.6
DNCMIKUŠ Michal 1680M 35-3900:06:13.850:009.6
DNCMATTSSON Christian 1486M 30-3400:06:14.000:009.6
DNCRUFETE Maribel Cabanes 2145W 35-3900:06:14.050:009.6
DNCROGERS Dave 2237M 45-4900:06:14.150:009.6
DNCLOPES Paulo Alexandre Costa 1823M 40-4400:06:14.550:009.6
DNCPÉREZ Sergio Gómez 1382M 25-2900:06:14.750:009.6
DNCSHIROKOV Igor 1720M 35-3900:06:14.750:009.6
DNCDRÁBKOVÁ Veronika 1987W 18-2400:06:15.050:009.6
DNCDESCHAMPS Emmanuel 1363M 25-2900:06:15.450:009.6
DNCEASTWOOD Graham 1601M 30-3400:06:15.700:009.6
DNCDIJKSTRA Dooitze 1647M 35-3900:06:16.100:009.6
DNCLINDSKOG Cecilia 2155W 35-3900:06:17.650:009.5
DNCČERVEŇÁK Radim 1295M 25-2900:06:18.850:009.5
DNCVERDIJK Ferrie 1792M 35-3900:06:19.100:009.5
DNCKOBZOVÁ Kristýna 2005W 18-2400:06:19.950:009.5
DNCGOFFIN Anneleen 2119W 30-3400:06:20.050:009.5
DNCBOZIC Sarah 2129W 35-3900:06:20.150:009.4
DNCVEKLYCH Oksana 1117W Elite00:06:20.450:009.5
DNCTYL Lukáš 1500M 30-3400:06:20.700:009.4
DNCDUURSMA Paul 2239M 45-4900:06:20.750:009.5
DNCJOBANPUTRA Mayoor 1309M 25-2900:06:22.100:009.4
DNCHOLUBAR Martin 1622M 35-3900:06:23.150:009.4
DNCNICO Ducouroy 2256M 45-4900:06:23.250:009.4
DNCCAGLIOTI Vincenzo 1875M 40-4400:06:23.300:009.4
DNCGUTIERREZ Jonathan Sanchez 1081M Elite00:06:23.800:009.4
DNCROTH Zdeněk 1393M 30-3400:06:24.200:009.4
DNCKOŁODZIEJ Krystian 1510M 30-3400:06:24.700:009.4
DNCGUSTAVSSON Jakob 1489M 30-3400:06:25.400:009.4
DNCFRANCK Delomenie 2289M 50-5400:06:25.450:009.3
DNCBJERRE Secilie Vicktoria 2183W 40-4400:06:25.550:009.4
DNCDALNICENCO Iuri 1066M Elite00:06:26.050:009.3
DNCMOROZOV Stepan 1657M 35-3900:06:26.100:009.3
DNCGEORGIOU Vlantislav 1851M 40-4400:06:27.100:009.3
DNCHORVÁTH Róbert 1963M 13-1700:06:27.250:009.3
DNCRAVENZWAAIJ Jeroen Van 1529M 30-3400:06:27.300:009.3
DNCBATES Daniel 2208M 45-4900:06:27.950:009.3
DNCKIELY Richie 1860M 40-4400:06:28.150:009.3
DNCSTEPHAN Thomas 1186M 18-2400:06:28.500:009.3
DNCFAVINI Beatrice Fantoni 2147W 35-3900:06:28.750:009.3
DNCSVENSSON Nicklas 1347M 25-2900:06:28.800:009.3
DNCIGNATJEVS Imants 1710M 35-3900:06:29.650:009.2
DNCDENIS Timakov 1228M 25-2900:06:29.750:009.2
DNCMAWLAM Jason 1459M 30-3400:06:29.900:009.2
DNCKORMESETH-RØDAL Celine 2033W 25-2900:06:30.450:009.2
DNCSTENBÄCK Amanda 1997W 18-2400:06:30.800:009.2
DNCLARSEN Øystein Høines 1483M 30-3400:06:31.500:009.2
DNCHEER Erik De 2285M 50-5400:06:31.500:009.2
DNCGÓMEZ Sergio Morales 1602M 30-3400:06:31.600:009.2
DNCSJÖÅSEN Stefan 1718M 35-3900:06:33.850:009.1
DNCVAZQUEZ Jesus Montoto 1612M 30-3400:06:33.900:009.1
DNCKORTHOUT Bruce 1315M 25-2900:06:34.350:009.1
DNCRIPOLLÉS Lluna Sanz 1110W Elite00:06:34.400:009.1
DNCRASMUSSEN Bjarne 2276M 50-5400:06:35.300:009.1
DNCJOHANSEN Philip Hust 1229M 25-2900:06:35.950:009.1
DNCOOSTERS Giovani 1808M 40-4400:06:35.950:009.1
DNCJEZIORSKI Paweł 1191M 18-2400:06:36.150:009.1
DNCGLEUT Alexandre Le 1210M 18-2400:06:36.300:009.1
DNCLEDO Adrián 1364M 25-2900:06:36.450:009.1
DNCILNICKI Darek 1418M 30-3400:06:36.450:009.1
DNCLACOUR Renaud 1443M 30-3400:06:36.800:009.1
DNCWOODS Jason Ryan 1635M 35-3900:06:37.100:009.1
DNCBRUUN Emil Hvidenlund 1195M 18-2400:06:37.150:009.1
DNCŠÁRKA Houšková 2028W 25-2900:06:37.650:009.1
DNCVLASTIMIL Krejčí 1641M 35-3900:06:38.050:009
DNCCZAPRAN Marek 1756M 35-3900:06:38.250:009
DNCEIßMANN Jörg 2193M 45-4900:06:38.250:009
DNCERIKSEN Kjetil 1645M 35-3900:06:38.450:009
DNCRICHTER Lukáš 1719M 35-3900:06:39.200:009
DNCBRORSSON Sebastian 1390M 25-2900:06:39.200:009
DNCWÅGAN André 1255M 25-2900:06:39.250:009
DNCRIHA Zdenek 1538M 30-3400:06:39.550:009
DNCBECKS Jose 1456M 30-3400:06:39.700:009
DNCHIRST Layla 2063W 25-2900:06:40.650:009
DNCHAMANN Maren 2104W 30-3400:06:40.650:009
DNCWILKINSON Becca 2096W 30-3400:06:40.800:009
DNCJONSSON Daniel 2202M 45-4900:06:41.250:009
DNCROSTOVTSEVA Anastasia 2177W 40-4400:06:41.400:009
DNCGLACNER Jiří 1519M 30-3400:06:41.450:009
DNCKAUKOLA Henri 1232M 25-2900:06:41.850:009
DNCCHOŁUJ Łukasz 1472M 30-3400:06:41.950:009
DNCBARANOWSKA Katarzyna 1129W Elite00:06:42.000:009
DNCDUHARTE Raul 1671M 35-3900:06:42.150:008.9
DNCBEASTS Jakub Stec Best 1556M 30-3400:06:42.350:008.9
DNCZALEWSKI Michał 1372M 25-2900:06:42.750:008.9
DNCDRABORG Helene 2013W 18-2400:06:43.250:008.9
DNCMARTIN Luis 1079M Elite00:06:44.050:008.9
DNCBERGE Kjetil 1628M 35-3900:06:44.950:008.9
DNCMOBERG Linus 1441M 30-3400:06:45.000:008.9
DNCSTEFAN Van De Cloot 1954M 40-4400:06:45.500:008.9
DNCMÖTHRATH Dirk 1655M 35-3900:06:45.500:008.9
DNCGEOFFREY Bréda 1180M 18-2400:06:45.850:008.9
DNCŠAŠKOVÁ Zuzana 2142W 35-3900:06:46.650:008.8
DNCАКИМОВ Евгений 1951M 40-4400:06:46.700:008.8
DNCGEYBELS Stef 1174M 18-2400:06:46.850:008.9
DNCEBERT Damian 1213M 18-2400:06:47.050:008.8
DNCTAMBURLANI Filippo 1333M 25-2900:06:47.400:008.8
DNCDMUCH Jakub 1267M 25-2900:06:47.650:008.8
DNCFELLDIN Markus 1387M 25-2900:06:48.200:008.8
DNCBONFANTI Andrea 1774Mężczyźni00:06:48.200:008.8
DNCNEAIL Stuart 1818M 40-4400:06:48.250:008.8
DNCBUYLE Michiel 1273M 25-2900:06:48.300:008.8
DNCJUSZCZYK Jaroslaw 1661M 35-3900:06:48.300:008.8
DNCCARAFFINI Atos 1949M 40-4400:06:48.400:008.8
DNCSCHEFER Erik 1319M 25-2900:06:48.600:008.8
DNCBIEDERMANN Stefan 1618M 35-3900:06:50.200:008.8
DNCJANUSZEWSKI Andrzej 1473M 30-3400:06:50.300:008.8
DNCPANITZ Erich 1490M 30-3400:06:50.600:008.8
DNCDENNIS 1945M 40-4400:06:50.650:008.8
DNCMATYASI Gábor 2278M 50-5400:06:51.100:008.8
DNCDUUREN Ruben Van 1294M 25-2900:06:51.700:008.7
DNCBRONS Sonny 1244M 25-2900:06:51.800:008.7
DNCMAXIMOV Andrey 1262M 25-2900:06:51.850:008.8
DNCCAMPBELL Colin 1891M 40-4400:06:52.000:008.7
DNCDOMORÁD Vojtěch 1592M 30-3400:06:52.350:008.7
DNCKAMIONKA Mateusz 1269M 25-2900:06:52.450:008.7
DNCSTARZYK Sebastian 1724M 35-3900:06:52.450:008.7
DNCDESOUTER Maud 2003W 18-2400:06:52.600:008.7
DNCPALMA Pedro 1433M 30-3400:06:52.650:008.7
DNCTAHIROVIC Adna 1981W 18-2400:06:52.750:008.7
DNCMARTIN Astrid 2031W 25-2900:06:52.850:008.7
DNCPOLYAKOVA Alexandra 2084W 30-3400:06:53.950:008.7
DNCBRACCAIOLI Lorenzo 1374M 25-2900:06:54.000:008.7
DNCPIOTROWSKI Grzegorz 1187M 18-2400:06:54.250:008.7
DNCLUCIDI Giuliano 1090M Elite00:06:54.850:008.7
DNCOSTE Maarten 1353M 25-2900:06:55.550:008.7
DNCBROOKS Jeremy 1882M 40-4400:06:56.000:008.7
DNCKILIMNIK Tomasz 1484M 30-3400:06:56.500:008.6
DNCUMLAUFT Tim 1141M 18-2400:06:56.700:008.6
DNCNÄRVÄ Andreas 1901M 40-4400:06:56.900:008.6
DNCVIDAL Rubén Pérez 1939M 40-4400:06:58.000:008.6
DNCSTRNAD Sebastian 1463M 30-3400:06:58.150:008.6
DNCPROCHASSON Baptiste 1265M 25-2900:06:58.300:008.6
DNCLOEVE Marc 1895M 40-4400:06:58.700:008.6
DNCPULSA Artur 1752M 35-3900:06:58.800:008.6
DNCHEIDER Florian 1488M 30-3400:06:59.250:008.6
DNCALIJA Floriana 2156W 35-3900:06:59.400:008.6
DNCPÉTER Geszti 1590M 30-3400:06:59.450:008.6
DNCDELBERGHE Aurélien 1734M 35-3900:07:00.150:008.6
DNCVERANNEMAN Pawel 1704M 35-3900:07:00.650:008.6
DNCMARTIN Lucie 2072W 30-3400:07:00.850:008.6
DNCFOIS Alessandro 1205M 18-2400:07:00.900:008.6
DNCBERGGREEN Søren 1862M 40-4400:07:01.200:008.6
DNCGLETTE Susanne 2182W 40-4400:07:01.200:008.5
DNCTERETA Ivan 1257M 25-2900:07:01.300:008.6
DNCREINHOLD Josef 1551M 30-3400:07:01.400:008.5
DNCHAPEOF Mathias 1075M Elite00:07:01.550:008.5
DNCMUSIL Marek 1898M 40-4400:07:01.550:008.6
DNCARTZ Claus 1440M 30-3400:07:02.500:008.5
DNCRAYNAUD Jimmy 1331M 25-2900:07:02.550:008.5
DNCSZEPANSKI Michael 1178M 18-2400:07:02.800:008.5
DNCPIDGEON Kieran 1753M 35-3900:07:03.200:008.5
DNCLARNEMARK David 1523M 30-3400:07:03.700:008.5
DNCVERSTEGEN Jurgen 1847M 40-4400:07:03.700:008.5
DNCARROYO Ángel Rivas 1911M 40-4400:07:04.950:008.5
DNCMEIER Rolf 1701M 35-3900:07:05.150:008.5
DNCHEIß Roman 1709M 35-3900:07:05.250:008.5
DNCSLAMENIK Bedrich 1835M 40-4400:07:05.450:008.5
DNCJANSSON Victoria 2169W 40-4400:07:05.450:008.5
DNCVRIES Lisan De 2175W 40-4400:07:05.650:008.5
DNCREPO Arto 1769M 35-3900:07:05.950:008.5
DNCVYUGINA Ekaterina 2107W 30-3400:07:06.300:008.4
DNCRENDELL Rebecca 1109W Elite00:07:06.500:008.4
DNCGIANNETTONI Lorenzo 1339M 25-2900:07:06.550:008.5
DNCGRZEGORZYCA Damian 1865M 40-4400:07:06.700:008.5
DNCKOVÁČIK Branislav 1504M 30-3400:07:06.850:008.4
DNCKUTZ Vanessa 2040W 25-2900:07:07.100:008.4
DNCNUYTS Rik 1826M 40-4400:07:07.250:008.4
DNCCASTRO Christian Danis 1201M 18-2400:07:07.450:008.4
DNCSCHIPPER Henk-Jan 1871M 40-4400:07:07.550:008.4
DNCLAZZAROTTI Hugues 1932M 40-4400:07:07.650:008.4
DNCPARTNERS Arjan Hoekstra - Bi 2218M 45-4900:07:08.350:008.4
DNCHARDY Alice 2048W 25-2900:07:08.450:008.4
DNCGILBERT Nicolas 1742M 35-3900:07:08.650:008.4
DNCGUILLOUX Jean Philippe 1934M 40-4400:07:08.800:008.4
DNCWUNDERLICH Tobias 1361M 25-2900:07:09.050:008.4
DNCSALUSTE Carry 1050M Elite00:07:09.250:008.4
DNCBEELEN Timothy Van 1445M 30-3400:07:09.350:008.4
DNCVTYURINA Anastasia 1986W 18-2400:07:09.350:008.4
DNCHEIJKENSKJÖLD Fenja 2117W 30-3400:07:09.350:008.4
DNCHOWARD John 1435M 30-3400:07:09.500:008.4
DNCKIRCHHOFF Andre 1168M 18-2400:07:10.050:008.4
DNCHELGERS Mike 1809M 40-4400:07:10.150:008.4
DNCJOHANSSON Tom 1238M 25-2900:07:10.300:008.4
DNCSTENGER Morten 1358M 25-2900:07:10.500:008.4
DNCDĄBROWSKI Radek 1794M 35-3900:07:10.950:008.4
DNCTATIANA Samorokova 2034W 25-2900:07:11.300:008.4
DNCBARRE Aline 1994W 18-2400:07:11.400:008.4
DNCGIACONE Massimo 1568M 30-3400:07:11.450:008.3
DNCANDERSSON Dan 2303M 50-5400:07:11.500:008.4
DNCWAHLUND Jesper 1884M 40-4400:07:11.550:008.3
DNCBALASHOV Roman 1477M 30-3400:07:12.000:008.3
DNCSCHOUTEN Wim 1512M 30-3400:07:12.100:008.3
DNCESTELLÉ Olga 2054W 25-2900:07:12.250:008.3
DNCBLICK Tommy 2300M 50-5400:07:12.600:008.3
DNCHELCL Vojtěch 1831M 40-4400:07:12.650:008.3
DNCBRØDLØS Kristian 1663M 35-3900:07:13.050:008.3
DNCGRABNY Jaroslaw 1925M 40-4400:07:13.050:008.3
DNCDĄBROWSKI Przemysław 1685M 35-3900:07:13.200:008.3
DNCMELISSA Bearzatto 2023W 25-2900:07:14.000:008.3
DNCKORYTOVA Katerina 2178W 40-4400:07:14.000:008.3
DNCAUGUSTYNIAK Mariusz 1878M 40-4400:07:14.150:008.3
DNCLOPES Marco 1093M Elite00:07:14.750:008.3
DNCHÄUSLER Markus 1856M 40-4400:07:14.750:008.3
DNCSANTOS Luis 1292M 25-2900:07:15.200:008.3
DNCDIJK Sandra Van 2174W 40-4400:07:15.200:008.3
DNCCLARKE Keith 1906M 40-4400:07:15.750:008.3
DNCARUSZTOWICZ Bartosz 1683M 35-3900:07:16.100:008.3
DNCWONNEBERGER Lars 1696M 35-3900:07:16.400:008.3
DNCMACH Martin 2254M 45-4900:07:16.550:008.3
DNCPETERSEN Thomas 1454M 30-3400:07:17.550:008.2
DNCHEIMBURG Stefan Von 1912M 40-4400:07:17.750:008.2
DNCALEXANDER Alexander 2244M 45-4900:07:17.950:008.2
DNCLAGREZE Sven 1654M 35-3900:07:18.000:008.2
DNCWROBBEL Michael 2200M 45-4900:07:18.000:008.2
DNCBIGLANDS Steve 2275M 50-5400:07:18.250:008.2
DNCPALAIKIENE Inga 1128W Elite00:07:18.300:008.2
DNCCHATFIELD Connor 1167M 18-2400:07:19.100:008.2
DNCLOUCA Sebastian 1800M 35-3900:07:19.200:008.2
DNCSANDBERG Amanda 1982W 18-2400:07:19.900:008.2
DNCRAMOS Paula Esteiro 2143W 35-3900:07:20.000:008.2
DNCHANBURY Daniel 1506M 30-3400:07:20.350:008.2
DNCERIKKSON Stefan 2209M 45-4900:07:20.500:008.2
DNCMIKEL Marek 1386M 25-2900:07:21.750:008.2
DNCO'MALLEY Kevin 1822M 40-4400:07:21.850:008.1
DNCSINNING Fabian 1407M 30-3400:07:22.050:008.1
DNCSTØRKSEN Lotte 2086W 30-3400:07:22.500:008.1
DNCJANSEN Theo 1697M 35-3900:07:22.950:008.1
DNCGHINZELLI Dario 1772M 35-3900:07:23.000:008.1
DNCNEUHAUS Pascal 1859M 40-4400:07:23.050:008.1
DNCDALKIEWICZ Darek 2246M 45-4900:07:23.300:008.1
DNCLANTZ Anders 1874M 40-4400:07:23.650:008.1
DNCSAND Andreas 1897M 40-4400:07:23.850:008.1
DNCKUBIESA Jakub 1796M 35-3900:07:23.850:008.1
DNCGASTEL Ruud Van 1700M 35-3900:07:24.300:008.1
DNCARONSSON Alexander 1301M 25-2900:07:24.350:008.1
DNCVANĚK Aleš 1938M 40-4400:07:24.450:008.1
DNCGRESZTA Waldemar 2268M 45-4900:07:24.600:008.1
DNCWEMHÖNER Ida 2146W 35-3900:07:24.750:008.1
DNCPETTERSSON Uffe E 1956M 40-4400:07:24.800:008.1
DNCBIELEC Kinga 2141W 35-3900:07:25.000:008.1
DNCEKLUND Malin 2008W 18-2400:07:25.350:008.1
DNCBENICEWICZ Kacper 1299M 25-2900:07:25.400:008.1
DNCBERLIN Nanna 2017W 25-2900:07:25.550:008.1
DNCMICHAŁOWSKI Jacek 1868M 40-4400:07:25.800:008.1
DNCRAZINKINA Anastasiya 2075W 30-3400:07:25.900:008.1
DNCBÜHRING Sven 1879M 40-4400:07:26.400:008.1
DNCTRAJKOVSKA Marta Kruszczynska 2128W 35-3900:07:26.600:008.1
DNCPÁDER Zsófia 2100W 30-3400:07:26.850:008.1
DNCNOWAK Lukasz 1354M 25-2900:07:27.000:008.1
DNCGINON Loïc 1270M 25-2900:07:27.550:008.1
DNCDUBROVIN Valentin 1436M 30-3400:07:27.850:008
DNCFREDRIKSSON Elin 2090W 30-3400:07:28.150:008
DNCESTIVAL Julien 1745M 35-3900:07:28.250:008
DNCLIND Ulrika 2066W 25-2900:07:28.500:008
DNCJACKSON Tracey 2338W 45-4900:07:29.300:008
DNCCHRISTENSEN Michael 1396M 30-3400:07:29.500:008
DNCMARINI Alessandro 2245M 45-4900:07:29.550:008
DNCWRIGHT Pete 1919M 40-4400:07:29.600:008
DNCDAVIDSON Richard 1383M 25-2900:07:29.900:008
DNCVOIGT Stephan 1844M 40-4400:07:30.350:008
DNCBONDARENKO Andriy 1323M 25-2900:07:30.700:008
DNCBOĆKO Krzysztof 1713M 35-3900:07:31.000:008
DNCLIGORIO Luigi 2293M 50-5400:07:31.100:008
DNCREINHOLD David 1714M 35-3900:07:31.500:008
DNCWĘGLARZ Waldemar 1910M 40-4400:07:31.750:008
DNCSERNBO Jens 2296M 50-5400:07:31.750:008
DNCNAZHA Ali 2263M 45-4900:07:31.900:008
DNCCOLIZZI Renato 1530M 30-3400:07:32.950:007.9
DNCHNETILA Tomas 1960M 40-4400:07:33.900:007.9
DNCSANTANA José Luis Caballero 1814M 40-4400:07:33.950:007.9
DNCHERMANSEN Sacha 2131W 35-3900:07:34.050:007.9
DNCSWACZYNSKI Krzysztof 1761M 35-3900:07:34.200:007.9
DNCMARIA Smyshlyaeva 1107W Elite00:07:35.000:007.9
DNCBURDZY Daniel 1200M 18-2400:07:35.450:007.9
DNCPOZO Juan Carlos Contador 1492M 30-3400:07:35.850:007.9
DNCFABIANI Marco 2312M 55+00:07:36.350:007.9
DNCBALOGH Zsolt 2251M 45-4900:07:37.100:007.9
DNCLEKISHVILI Sofiya 2076W 30-3400:07:37.300:007.9
DNCOLSSON Lucas 1157M 18-2400:07:37.500:007.9
DNCKĘPA Justyna 2162W 35-3900:07:37.500:007.9
DNCDONALD Lee 2126W 35-3900:07:37.550:007.9
DNCNATALI Monica 2347W 55+00:07:37.650:007.9
DNCMOTA Carlos 1760M 35-3900:07:37.800:007.9
DNCSZUMLAŃSKI Marcin 1520M 30-3400:07:37.850:007.9
DNCЧИРКИН Алексей 1247M 25-2900:07:38.050:007.9
DNCHANNABUSS Daniel 2232M 45-4900:07:38.250:007.9
DNCWACKER Lukas 1494M 30-3400:07:38.500:007.8
DNCANDYHOLMES7 2253M 45-4900:07:39.300:007.8
DNCGUILLAUMIN Thomas 1497M 30-3400:07:39.450:007.8
DNCMARONGIU Andrea 1322M 25-2900:07:39.800:007.8
DNCNOVÁ Petra 2006W 18-2400:07:39.950:007.8
DNCGARNIER Anouk 1133W Elite00:07:40.050:007.8
DNCHINTON Mike 1662M 35-3900:07:40.150:007.8
DNCMAGALHÃES José Pedro 1867M 40-4400:07:40.300:007.8
DNCGROBELNA Aleksandra 2001W 18-2400:07:40.600:007.8
DNCSANNA Luca 1864M 40-4400:07:41.300:007.8
DNCFERRIS Miguel 1887M 40-4400:07:41.600:007.8
DNCBELLINI Giulio 1782M 35-3900:07:42.250:007.8
DNCHEDENVALL Pierre 1699M 35-3900:07:42.650:007.8
DNCKÖNIGOVÁ Lucie 2082W 30-3400:07:42.700:007.8
DNCMASSOUF Fred 2265M 45-4900:07:42.850:007.8
DNCKRŠMARU Barbora 2120W 30-3400:07:42.950:007.8
DNCSZUBA-ŁATA Klaudia 1984W 18-2400:07:44.250:007.8
DNCRÓŻAŃSKI Rafał 1832M 40-4400:07:44.550:007.8
DNCPEDERSEN Brian 1863M 40-4400:07:44.850:007.7
DNCŻOŁNIEREK Wojciech 1291M 25-2900:07:45.050:007.7
DNCBEATTY Mark 1591M 30-3400:07:47.100:007.7
DNCLUCIANO Cecconi 2262M 45-4900:07:47.350:007.7
DNCDIFONSO Riccardo 1214M 18-2400:07:47.800:007.7
DNCKYRYCH Michaela 2157W 35-3900:07:48.550:007.7
DNCKONÍČEK Filip 1491M 30-3400:07:48.800:007.7
DNCENDEJANN Raphael 1360M 25-2900:07:49.150:007.7
DNCSPORTÍ Daniel 2261M 45-4900:07:49.300:007.7
DNCJAGER Robin De 1297M 25-2900:07:49.550:007.7
DNCSVENSSON Linda 2181W 40-4400:07:49.550:007.7
DNCSWART Maarten 1673M 35-3900:07:50.400:007.6
DNCJANOWSKI Jano 1731M 35-3900:07:50.600:007.6
DNCSTEEN Arie Van Der 1899M 40-4400:07:50.750:007.7
DNCRAVIZZA Marco Alfredo 2230M 45-4900:07:50.750:007.6
DNCWRÓBEL Jacek 1215M 18-2400:07:50.950:007.6
DNCJOHANSSON Billy 2283M 50-5400:07:51.200:007.6
DNCIHECHERENOMA Uche 1496M 30-3400:07:51.400:007.6
DNCPEÑARANDA Ivan Cervera 1499M 30-3400:07:51.950:007.6
DNCMUL Elisa 2327W 13-1700:07:52.000:007.6
DNCFRANCZYSZYN-PORTKA Magdalena 2149W 35-3900:07:52.150:007.6
DNCDĄBROWSKI Radek 1221M 18-2400:07:52.200:007.6
DNCRUDY Rychlinski 1465M 30-3400:07:52.500:007.6
DNCPALUCH Eddy 1558M 30-3400:07:52.500:007.6
DNCMARTIN Flore 2071W 30-3400:07:53.050:007.6
DNCHAAN John De 1575M 30-3400:07:53.300:007.6
DNCZEMAN David 1681M 35-3900:07:53.300:007.6
DNCVINCK Mark 1890M 40-4400:07:53.500:007.6
DNCAPPLETON-SMITH Martyn 1771M 35-3900:07:53.850:007.6
DNCGREIBIG Michaela 2108W 30-3400:07:54.000:007.6
DNCGRILOT Fabien 1437M 30-3400:07:54.100:007.6
DNCDELOGE Alexandre 1931M 40-4400:07:54.450:007.6
DNCMAND Christian 1735M 35-3900:07:54.550:007.6
DNCDAMKOT Tom 1970M 13-1700:07:54.800:007.6
DNCSCHLAG Yannic 1220M 18-2400:07:55.100:007.6
DNCPOLSTRA Berry 1606M 30-3400:07:55.550:007.6
DNCBÖKMAN Vanja 1978W 18-2400:07:56.150:007.6
DNCPENNISI Dario 2260M 45-4900:07:56.150:007.6
DNCCANO Ignacio Palomo 1779M 35-3900:07:56.300:007.5
DNCVOS Michel De 2305M 50-5400:07:56.500:007.6
DNCFELLDIN Jenny 2064W 25-2900:07:56.600:007.5
DNCTIMSIT Romain 1300M 25-2900:07:56.800:007.5
DNCLOBODA Vadim 2279M 50-5400:07:57.000:007.5
DNCNAVARRO Cristian Manuel Madrid 1337M 25-2900:07:57.350:007.5
DNCRANNIKKO Emmy 2132W 35-3900:07:57.650:007.5
DNCRENGREN Linn 2102W 30-3400:07:57.850:007.5
DNCBLADIN Emelie 2105W 30-3400:07:58.000:007.5
DNCJASIŃSKA Alicja 2324W 13-1700:07:58.100:007.5
DNCKOERMENDI Csilla 2124W 35-3900:07:58.200:007.5
DNCPUTMAN David 2269M 45-4900:07:58.600:007.5
DNCGROOTERS Leo 1810M 40-4400:07:58.650:007.5
DNCSŁONIEWSKI Rafał 1755M 35-3900:07:58.800:007.5
DNCMISSALA Magda 2325W 13-1700:07:58.900:007.5
DNCPAPLICKA Katarzyna 2158W 35-3900:07:59.050:007.5
DNCMARTOS Eduardo 1346M 25-2900:07:59.200:007.5
DNCMORAWSKI Grzegorz 1715M 35-3900:07:59.550:007.5
DNCLOVELOCK Christian 1853M 40-4400:07:59.700:007.5
DNCCAULA Giulia 2004W 18-2400:07:59.950:007.5
DNCCONVERS Jean-Luc 2317M 55+00:08:00.550:007.5
DNCRECHENBACH Tim 1356M 25-2900:08:00.750:007.5
DNCKRITIKOS Ilias 1233M 25-2900:08:01.000:007.5
DNCGALTIER Muriel 1123W Elite00:08:01.100:007.5
DNCBELLIDO David Fernández 1336M 25-2900:08:01.100:007.5
DNCTAUER Tomáš 2259M 45-4900:08:02.000:007.5
DNCREMØ Hilde Therese 2083W 30-3400:08:02.200:007.5
DNCTROUSIL Honza 1725M 35-3900:08:02.900:007.5
DNCGRIFFITHS James 1593M 30-3400:08:03.450:007.5
DNCALESSANDRO Pilotta 2226M 45-4900:08:03.750:007.4
DNCLUNDIN Alexandra 2089W 30-3400:08:04.000:007.4
DNCPINHAL Gisela 2144W 35-3900:08:05.750:007.4
DNCVLIEGEN Astrid 2074W 30-3400:08:05.850:007.4
DNCSTEJSKALOVÁ Barbora 1121W Elite00:08:07.650:007.4
DNCYUCEL Jeffrey 1209M 18-2400:08:07.900:007.4
DNCBOBBY Selimir Saskin 1909M 40-4400:08:08.000:007.4
DNCSTEVENSON Alan 1646M 35-3900:08:08.150:007.4
DNCCEDERHOLM Jonny 2316M 55+00:08:08.300:007.4
DNCOSTERMEIER Gabriel 1264M 25-2900:08:08.450:007.4
DNCHOCHSTEIN Dirk 1858M 40-4400:08:09.450:007.4
DNCDERRICK Robert 1712M 35-3900:08:10.300:007.3
DNCJANSEN Roel 2213M 45-4900:08:10.300:007.3
DNCLACALLE Juan Manuel González 1597M 30-3400:08:11.050:007.3
DNCEVALDSSON Daniel 1907M 40-4400:08:11.900:007.3
DNCDOODY Kelvin 1485M 30-3400:08:12.000:007.3
DNCPRZYSTAW Maxim 1574M 30-3400:08:12.250:007.3
DNCJÜRGENS Martina 2333W 45-4900:08:12.500:007.3
DNCSERRÃO Tânia 2154W 35-3900:08:13.350:007.3
DNCJACOBSEN Peter 1276M 25-2900:08:14.250:007.3
DNCKOLLBERG Louise 1992W 18-2400:08:14.250:007.3
DNCBRUECKER Christoph 1786M 35-3900:08:14.400:007.3
DNCGATZ Detlef 2297M 50-5400:08:14.450:007.3
DNCSONDA Martin 1876M 40-4400:08:14.800:007.3
DNCWRIGHT Jason 2233M 45-4900:08:15.350:007.3
DNCSCHUTTRUPS Margreet 2099W 30-3400:08:15.600:007.3
DNCFAVA Alan 1743M 35-3900:08:16.000:007.3
DNCJOLY Antoine 1707M 35-3900:08:16.200:007.3
DNCVERBESSEM Bart 1438M 30-3400:08:16.600:007.2
DNCPHILLIPS Alastair 1326M 25-2900:08:16.700:007.3
DNCNIELSEN Niklas 1517M 30-3400:08:17.150:007.2
DNCSAMTLEBE Thomas Hebbe 1873M 40-4400:08:17.450:007.2
DNCGRABAUSKAS Tautvydas 1958M 40-4400:08:17.700:007.2
DNCPETTERA Stev 1953M 40-4400:08:17.750:007.2
DNCJUNIOR Radek Vostřel 1969M 13-1700:08:17.950:007.2
DNCHARTLEY Robert James 1532M 30-3400:08:18.000:007.2
DNCWEJKNIS Krzysztof 1684M 35-3900:08:18.250:007.2
DNCPAL Mario 2252M 45-4900:08:19.450:007.2
DNCJÜRGENS Friedrich 2264M 45-4900:08:19.600:007.2
DNCPABLO 1498M 30-3400:08:20.000:007.2
DNCRICHARDS David 1849M 40-4400:08:20.600:007.2
DNCIJZENDOORN Charissa 2111W 30-3400:08:21.800:007.2
DNCFRICK Emma 2058W 25-2900:08:22.250:007.2
DNCRODKINA Anna 2052W 25-2900:08:22.600:007.2
DNCVERDIESEN Marloes 1999W 18-2400:08:22.800:007.2
DNCBARCIKOWSKI Lukasz 1703M 35-3900:08:24.800:007.1
DNCCASTELEIJN Selma 1998W 18-2400:08:25.000:007.1
DNCJENSEN Jakob Lund 1698M 35-3900:08:26.100:007.1
DNCLOKAJÍČKOVÁ Klára 1134W Elite00:08:26.650:007.1
DNCFRISARI Cecilia 2022W 25-2900:08:28.000:007.1
DNCTORESÄTER Ludvig "luddet" 1325M 25-2900:08:29.350:007.1
DNCARVIDSSON Sara 2062W 25-2900:08:29.400:007.1
DNCKJELLIN Tini 2343W 50-5400:08:29.700:007.1
DNCOLEFELDT Teresa 2335W 45-4900:08:30.000:007.1
DNCACQUADRO Elena 2139W 35-3900:08:30.100:007
DNCGODANI Francesca 2000W 18-2400:08:30.350:007.1
DNCSCHIRMER Thorsten 2194M 45-4900:08:31.000:007
DNCFERRARI Sabrina 2176W 40-4400:08:31.900:007
DNCGRIMM Sophia 1976W 18-2400:08:32.950:007
DNCRANGNAU Olga 2037W 25-2900:08:33.600:007
DNCCARACCIOLO Concettina 2118W 30-3400:08:33.750:007
DNCNAP Frank 1943M 40-4400:08:33.950:007
DNCRATEL Vincent 1394M 30-3400:08:34.300:007
DNCBAKER Stephen 1634M 35-3900:08:35.000:007
DNCSOBRINO David Ruedas 1676M 35-3900:08:35.550:007
DNCGIRAUDO Federico 1917M 40-4400:08:35.650:007
DNCDAVIS Helen 2187W 40-4400:08:35.700:007
DNCLINDBERG Kim 2257M 45-4900:08:36.300:007
DNCMÜLLERS Kai 1923M 40-4400:08:36.850:007
DNCJOHANSSON Caroline 2041W 25-2900:08:37.050:007
DNCKRAMER Elin 2049W 25-2900:08:37.050:007
DNCFIORIO Davide 2301M 50-5400:08:37.600:006.9
DNCTYKAL Petr 1175M 18-2400:08:37.850:006.9
DNCKRIUCHKOVA Irina 2024W 25-2900:08:38.150:006.9
DNCDITTMANN Kerstin 2148W 35-3900:08:38.550:006.9
DNCRYLKOVA Katerina 2109W 30-3400:08:39.600:006.9
DNCGABELGAARD Tanja 1127W Elite00:08:40.150:006.9
DNCNORRMAN Sandra 2051W 25-2900:08:40.150:006.9
DNCEDBERG Jens 1049M Elite00:08:41.700:006.9
DNCAFANASJEV Gennadij 1783M 35-3900:08:42.300:006.9
DNCMATVIEVSKI Dmitry 1629M 35-3900:08:42.900:006.9
DNCROSA Domenico De 2225M 45-4900:08:43.100:006.9
DNCSCHREUDER Myrte 2101W 30-3400:08:43.200:006.9
DNCCAMMAROTA Fabio 2234M 45-4900:08:43.400:006.9
DNCRESTUCCIA Nicolo 1586M 30-3400:08:44.050:006.9
DNCCAMPATELLI Roberto 2304M 50-5400:08:45.050:006.9
DNCVERSEPUECH Adélie 2097W 30-3400:08:47.000:006.8
DNCOROLOGIO Noemi 2056W 25-2900:08:48.300:006.8
DNCORASIO Marta Relaño 2032W 25-2900:08:48.600:006.8
DNCANASTASIA Bondarenko 2059W 25-2900:08:49.300:006.8
DNCGONZALEZ Irene B. 1105W Elite00:08:50.050:006.8
DNCNADIA Amri 2188W 40-4400:08:50.300:006.8
DNCHAHN Henrik 1585M 30-3400:08:50.850:006.8
DNCKIDSTON Douglas 1613M 30-3400:08:51.050:006.8
DNCŠIŠKA Patrik 1211M 18-2400:08:51.450:006.8
DNCTHOMAYER Jan 1199M 18-2400:08:51.850:006.8
DNCLAENEN René 1946M 40-4400:08:52.800:006.8
DNCLEN Vlad 1732M 35-3900:08:54.200:006.7
DNCCATHRINEMS 2087W 30-3400:08:58.500:006.7
DNCTARANTINO Selene 1990W 18-2400:09:00.500:006.7
DNCRITZLER Anna 2019W 25-2900:09:01.100:006.7
DNCCRISCI Marco 1340M 25-2900:09:01.300:006.7
DNCHERNES Elisabeth 2027W 25-2900:09:01.600:006.6
DNCBENGTSSON Per 2314M 55+00:09:02.200:006.6
DNCBARTOLI Sara 2029W 25-2900:09:03.650:006.6
DNCROEFFAERS Sander 1376M 25-2900:09:04.450:006.6
DNCALEXANDRE Renato 1305M 25-2900:09:05.400:006.6
DNCKOLIC Monika 2153W 35-3900:09:06.850:006.6
DNCNELSON-DALEY Rianna 1112W Elite00:09:06.900:006.6
DNCSELSTØ Tonje 2112W 30-3400:09:08.150:006.6
DNCMACIEJAK Anna 1126W Elite00:09:11.200:006.5
DNCPEIRO Javier Signes 2313M 55+00:09:11.700:006.5
DNCKIRILL Belkin 1507M 30-3400:09:12.500:006.5
DNCPRA Jacopo De 1669M 35-3900:09:14.250:006.5
DNCTHORKILDSEN Evy Marie 1116W Elite00:09:14.500:006.5
DNCCHILDS Jake 1320M 25-2900:09:15.050:006.5
DNCFEIGH Maya 2091W 30-3400:09:16.750:006.5
DNCCHRISTOPHER Michel 1537M 30-3400:09:18.850:006.4
DNCWARDA Justyna 2045W 25-2900:09:19.200:006.4
DNCVAKHRAMEEVA Valentina 2015W 25-2900:09:19.950:006.4
DNCMAŁEK Hanna 2044W 25-2900:09:19.950:006.4
DNCLONKOVÁ Magdalena 1991W 18-2400:09:20.600:006.4
DNCHORSTEN Jan Von 2286M 50-5400:09:21.100:006.4
DNCÖLUND Emma 2070W 30-3400:09:23.200:006.4
DNCBROUWER Robert 2306M 50-5400:09:26.450:006.4
DNCOLESEN Christina 2348W 55+00:09:26.550:006.3
DNCLEICHT Steffen 1924M 40-4400:09:29.450:006.3
DNCGUNN Paul 1850M 40-4400:09:30.550:006.3
DNCWALWYN Anthony 2287M 50-5400:09:31.000:006.3
DNCMCENHILL Aaron 1762M 35-3900:09:32.600:006.3
DNCNIELSEN Rene` 1894M 40-4400:09:32.850:006.3
DNCANDERSSON Henrik 1693M 35-3900:09:33.150:006.3
DNCCREVEAU Anthony 1846M 40-4400:09:33.750:006.3
DNCSPIJKER Dayen 2334W 45-4900:09:35.600:006.3
DNCJONSSON Hanna 2326W 13-1700:09:35.800:006.3
DNCНИКУЛИНА Екатерина 2020W 25-2900:09:35.850:006.3
DNCTEJERO Javier Casado 1375M 25-2900:09:37.350:006.2
DNCJONSSON Sara 2336W 45-4900:09:37.800:006.2
DNCMAGOMEDOVA Leyla 2136W 35-3900:09:38.050:006.2
DNCPUCHACZ Michael 1481M 30-3400:09:38.150:006.2
DNCCADDICK James 1467M 30-3400:09:38.950:006.2
DNCMIODEK Adrian 1664M 35-3900:09:39.550:006.2
DNCHUTCHISON Christopher 1464M 30-3400:09:40.250:006.2
DNCJASTRZĘBSKI Sławomir 1843M 40-4400:09:41.400:006.2
DNCJURNÍK Lukáš 1207M 18-2400:09:42.050:006.2
DNCJANOUŠEK Petr 1197M 18-2400:09:42.500:006.2
DNCROLIN Erika 2036W 25-2900:09:46.800:006.1
DNCKERR Steven 1775M 35-3900:09:47.600:006.1
DNCHAMMARBÄCK Moa 1996W 18-2400:09:48.050:006.1
DNCCARSTAIRS John 2291M 50-5400:09:50.000:006.1
DNCBERGSTRÖM Ewa 2180W 40-4400:09:50.300:006.1
DNCKURAŚ Beata 1122W Elite00:09:51.950:006.1
DNCGARDABOU Ibtisam 1985W 18-2400:09:51.950:006.1
DNCKLIUCHENIA Vitali 1705M 35-3900:09:54.100:006.1
DNCTARYBA Maryna 2079W 30-3400:10:02.550:006
DNCKARLSSON Gunilla 2179W 40-4400:10:04.700:006
DNCPALERMO Mathias 1143M 18-2400:10:08.100:005.9
DNCJACKIEWICZ Lukasz 1589M 30-3400:10:08.100:005.9
DNCPOULTER Mark 1511M 30-3400:10:08.550:005.9
DNCWELLS Robert 2247M 45-4900:10:12.150:005.9
DNCOSSOLA Elisa 2053W 25-2900:10:12.700:005.9
DNCOLDHAM Justin 2231M 45-4900:10:12.800:005.9
DNCHANNABUSS Callum 1964M 13-1700:10:16.550:005.8
DNCMILLS Leroy 1682M 35-3900:10:19.350:005.8
DNCAUBRIOT Pierre Charles 1571M 30-3400:10:23.900:005.8
DNCCOULY Christophe - Akira 1921M 40-4400:10:25.250:005.8
DNCSØRENSEN Mette 1980W 18-2400:10:26.350:005.8
DNCGAROFALO Claudia 2018W 25-2900:10:26.950:005.7
DNCKIRKWOOD Emma 2081W 30-3400:10:27.050:005.7
DNCSOCARRADES Bibiana 2078W 30-3400:10:30.100:005.7
DNCVEČERNÍKOVÁ Barbora 2328W 13-1700:10:30.850:005.7
DNCLOVATO Daniela 2092W 30-3400:10:36.950:005.7
DNCPOMBO Valentin Amigo 1414M 30-3400:10:40.000:005.6
DNCDOUHAN Dylan 1179M 18-2400:10:42.500:005.6
DNCENDEJANN Sina 2010W 18-2400:10:43.400:005.6
DNCGIATSINTOVA Irina 2159W 35-3900:10:45.050:005.6
DNCKUŽELÍKOVÁ Zuzana 2050W 25-2900:10:48.900:005.5
DNCGEREIN Benjamin 1503M 30-3400:11:01.000:005.4
DNCDIEGO Raul De 1524M 30-3400:11:09.100:005.4
DNCSPÅNG Malin 2184W 40-4400:11:09.900:005.4
DNCGÓMEZ-ESCALONILLA Elisa De La Cruz 1104W Elite00:11:26.200:005.2
DNCKASCHE Denny 1542M 30-3400:11:28.800:005.2
DNCDRUIJFF Meike 2323W 13-1700:11:28.800:005.2
DNCGODFREY Maggie 2344W 50-5400:11:37.150:005.2
DNCHAWKINS Nathan 1514M 30-3400:11:38.950:005.2
DNCGRAY Scott 1610M 30-3400:11:39.700:005.1
DNCSIMMONS John 1203M 18-2400:11:41.000:005.1
DNCZEBERG Alicia 2322W 13-1700:11:59.850:005
DNCSANZ Jose Royo 1839M 40-4400:12:17.900:004.9
DNCCRUICKSHANK Phil 2280M 50-5400:12:53.250:004.7
DNCCRUICKSHANK Xander Dodd 1961M 13-1700:12:53.950:004.7
DNCCRUZ Azahara Fernandez 2441W Journeyman00:13:39.750:004.4
DNCKRASOŃ Jakub 1216M 18-2400:15:59.100:003.8
DNCKJELL Jimmy 1025M Elite01:13:32.150:000.8
DNCSTEENSGAARD Ida Mathilde 1115W Elite01:44:24.600:000.6
DNCTABARÉS Dani Pulga Rodríguez 1089M Elite01:45:36.250:000.6
DNCHEIBØ Gunn Elin 2337W 45-4905:59:50.250:000.2
DNCTORNQVIST Oscar 1877M 40-44--
DNCPROPERZI Valentina 2151W 35-39--
DNCBAIA Rafael 1768M 35-39--
DNCWÓJCIK Michał 1218M 18-24--
DNCBARALDI Davide 1603M 30-34--
DNCÁLVAREZ Rafita Fernández 1937M 40-44--
DNCKRITIKOS Vasilis 2290M 50-54--
DNCSCHLAEPFER Tamara 2095W 30-34--
DNCBELLOMI Laura 2140W 35-39--
DNCMANDAS Emanuela 2113W 30-34--
DNCKOENIG Dimitri 1888M 40-44--
DNCMARRAS Cinzia 2085W 30-34--
DNCHORSCH Stefan 1469M 30-34--
DNCPANIN Egor 1162M 18-24--
DNCBELOEIL Jenny Dreano 2116W 30-34--
DNCSELYMES Kinga 2135W 35-39--
DNCCROESE Claire 2150W 35-39--
DNCKASTSIUCHENKA Volha 2073W 30-34--
DNCESENIA 1993W 18-24--
DNCCARBONI Letizia 2114W 30-34--
DNCKOLB Lars 1457M 30-34--
DNCKEREK Bernhard 1656M 35-39--
DNCKRÓLAK Margarita 2011W 18-24--
DNCLEVY Philippe 2309M 55+--
DNCVLADIMIR Larionov 2207M 45-49--
DNCESPINOSA Joaquín Malo 1908M 40-44--
DNCDZIDT Małgorzata 2069W 30-34--
SILIN Sergey 1015M Elite DNF--
ULVEGREN Albina 2167W 40-44 DNF--
BURGESS Jason 1896M 40-44 DNF--
PUPKOWSKI Kamil 1625M 35-39 DNF--
HRABÁK Petr 1561M 30-34 DNF--
KIRCHHÖFER Nils 1204M 18-24 DNF--
MOSE Kristian 1513M 30-34 DNF--
BUNGARD Carina 1102W Elite DNF--
SCHUH Martin 1077M Elite DNF--
CAROL Zenga 2012W 18-24 DNF--
GROENEVELD Remco 1749M 35-39 DNF--
BERKES Marton 1442M 30-34 DNF--
TORRES Oscar Barranquero 1824M 40-44 DNF--
MONZON Imre 1065M Elite DNF--
PODGORSKI Marek 1679M 35-39 DNF--
SKRATAAS Helle 2110W 30-34 DNF--
ULDYNOWICZ Bartosz 1584M 30-34 DNF--
BARDELLINI Paola 2121W 30-34 DNF--
STEC Jakub 1582 DNF--
KAZUŁA Jakub 1176M 18-24 DNF--
REDZIK Mateusz 1188M 18-24 DNF--
BENTLEY Andy 1893M 40-44 DNF--
WEETS Marc 2311M 55+ DNF--
WHETTON Eddie 1722M 35-39 DNF--
KANSTRUP Nicolai 1226M 25-29 DNF--
SUESSENBACH Steffen 1730M 35-39 DNF--
JENSEN Michael Degn 1711M 35-39 DNF--
HAGLUND Cecilia 2088W 30-34 DNF--
JOHANSSON Ellen 2103W 30-34 DNF--
Znaleziono 1274 wynik(ów)